[{"header": {"dx": 0.06612293990616946, "dy": 0.0552356325346848, "nx": 98, "ny": 59, "la1": 35.046912555036876, "la2": 31.78801023549047, "lo1": -121.43107172385933, "lo2": -114.95102361305473, "refTime": "2026041804", "parameterCategory": 1, "parameterNumber": 2}, "data": [7.6, 7.33, 7.61, 6.97, 6.98, 6.35, 6.35, 5.72, 5.41, 5.37, 4.43, 4.07, 2.8, 2.12, 1.2, 1.6, 0.95, 0.95, 0.95, 1.34, 1.79, 2.24, 2.6, 3.95, 4.47, 4.92, 5.36, 5.81, 5.77, 6.07, 6.28, 6.28, 5.86, 6.07, 5.36, 4.41, 3.74, 3.32, 2.8, 1.9, 1.88, 1.84, 1.6, 2.41, 3.79, 5.72, 7.06, 7.69, 7.69, 6.4, 3.58, 1.9, 3.49, 5.05, 6.0, 6.0, 6.07, 6.07, 6.07, 6.4, 5.44, 3.51, 2.24, 1.2, -0.0, -0.0, -0.0, 1.2, 1.2, -0.0, -1.2, -1.79, -2.24, -2.68, -2.24, -1.79, -1.34, -0.45, 0.0, 0.0, 0.0, 0.0, 0.0, 0.6, 0.0, 0.71, 0.54, 1.2, 1.88, 2.84, 4.46, 4.74, 4.65, 3.9, 2.0, 0.53, 0.0, 0.57, 7.33, 7.33, 6.97, 6.71, 6.7, 6.35, 6.35, 5.72, 5.41, 5.08, 4.74, 3.79, 2.8, 2.17, 3.82, 3.2, 0.95, 0.6, 0.6, 0.6, 0.95, 1.79, 2.68, 3.13, 3.95, 4.47, 4.47, 4.47, 4.41, 4.41, 5.16, 5.34, 5.34, 4.73, 4.02, 3.82, 3.45, 3.32, 2.8, 2.4, 1.88, 1.6, 2.0, 3.55, 4.46, 6.53, 7.64, 7.33, 5.82, 2.68, 2.84, 3.79, 5.43, 6.13, 5.86, 6.07, 6.07, 6.07, 6.4, 6.94, 6.79, 4.87, 2.24, 0.95, -0.0, -0.0, 0.0, 0.89, 0.45, -0.32, -1.2, -1.79, -2.68, -2.68, -2.68, -2.24, -1.34, -0.45, 0.0, 0.0, 0.0, 0.0, 0.0, 0.6, 0.0, 0.71, 0.54, 1.2, 1.88, 2.84, 4.46, 4.74, 4.65, 3.9, 2.0, 0.53, 0.0, 0.57, 7.33, 6.97, 6.97, 6.98, 6.34, 6.35, 5.72, 5.72, 5.71, 5.08, 4.45, 4.11, 2.5, 2.4, 2.12, 1.7, 1.7, 1.26, 1.24, 0.71, 0.57, 0.8, 1.58, 2.68, 3.58, 4.85, 3.95, 3.51, 3.13, 2.68, 3.58, 3.97, 3.51, 3.58, 3.13, 2.8, 3.07, 3.45, 3.32, 2.5, 2.53, 2.66, 4.03, 4.71, 5.13, 5.49, 5.43, 3.74, 2.6, 3.84, 5.21, 6.0, 6.0, 6.0, 5.69, 5.46, 5.46, 6.4, 6.79, 6.79, 6.79, 5.16, 2.6, 0.95, -0.0, 0.0, 0.45, 0.63, 0.0, -0.63, -1.26, -1.7, -2.24, -2.68, -3.07, -2.6, -1.49, -0.45, 0.0, 0.0, 0.0, 0.0, 0.6, 0.8, 0.57, 0.71, 1.24, 1.49, 1.88, 3.79, 5.06, 5.37, 4.29, 3.64, 1.27, 0.0, 0.0, 0.0, 6.96, 6.97, 6.33, 6.34, 6.08, 6.35, 6.0, 5.72, 5.71, 5.08, 4.75, 4.12, 3.07, 2.15, 2.4, 2.6, 2.6, 1.86, 1.24, 0.54, 0.0, 0.0, 0.57, 1.26, 2.24, 2.54, 4.24, 4.15, 3.04, 2.24, 3.04, 3.04, 2.6, 1.86, 1.9, 2.21, 2.53, 3.22, 4.46, 3.48, 3.72, 3.72, 3.16, 3.83, 3.83, 3.95, 3.58, 3.83, 5.05, 6.0, 6.13, 6.4, 5.82, 5.43, 4.84, 5.21, 5.82, 6.28, 6.79, 6.98, 6.98, 5.64, 2.6, 1.2, -0.0, 0.0, 0.0, 0.0, 0.0, -0.6, -0.99, -1.26, -1.7, -2.24, -3.07, -2.68, -1.9, -0.57, 0.0, -0.57, -0.71, 0.0, 0.71, 1.24, 0.71, 0.71, 1.24, 2.21, 2.84, 5.06, 5.69, 4.65, 3.64, 2.2, 0.66, 0.0, 0.0, 0.0, 6.7, 6.33, 6.34, 6.34, 5.7, 5.98, 5.72, 5.72, 5.44, 5.1, 4.47, 4.12, 3.07, 1.9, 1.9, 1.9, 2.5, 2.4, 1.49, 0.65, 0.0, 0.0, 0.0, 0.0, 0.89, 1.34, 2.12, 3.47, 3.13, 2.68, 2.21, 2.15, 1.49, 0.73, 1.05, 1.05, 1.99, 3.91, 4.65, 3.79, 2.23, 2.24, 2.23, 3.83, 4.4, 4.46, 5.43, 5.82, 6.4, 6.4, 5.43, 5.43, 4.46, 3.84, 4.19, 5.05, 6.28, 6.79, 7.28, 7.89, 7.11, 5.31, 3.07, 0.99, -0.0, -0.0, 0.45, 0.45, 0.0, -0.0, -0.6, -0.6, -1.26, -1.7, -2.24, -2.5, -1.88, -0.65, 0.0, 0.0, -0.53, 0.0, 0.53, 0.65, 0.0, 0.0, 1.16, 2.51, 4.36, 5.3, 5.06, 4.11, 3.79, 2.07, 0.0, 0.0, 0.65, 1.26, 6.97, 6.33, 6.34, 5.7, 5.7, 5.72, 5.72, 5.72, 5.72, 5.1, 4.47, 3.84, 2.41, 1.49, 1.9, 2.21, 1.88, 2.21, 1.88, 0.7, 0.0, 0.0, 0.0, 0.0, 0.0, 1.2, 2.0, 2.23, 2.97, 2.97, 2.21, 1.6, 1.49, 0.82, 0.71, 0.0, 0.78, 3.2, 3.22, 0.63, -0.0, -0.0, 2.21, 3.49, 5.05, 5.82, 6.08, 6.44, 6.44, 6.0, 5.34, 4.4, 3.83, 3.58, 4.22, 5.75, 6.79, 6.98, 7.89, 8.8, 7.56, 4.87, 2.4, 0.61, -0.0, 0.61, 1.24, 0.63, 0.0, 0.0, -0.45, -0.89, -0.63, -0.8, -0.89, -1.26, -1.2, -1.16, 0.0, 0.0, -0.61, -0.59, 0.0, 0.59, 0.0, 0.0, 1.41, 3.69, 4.71, 4.83, 3.72, 3.72, 4.43, 1.61, 0.0, 0.53, 1.84, 1.9, 6.58, 6.33, 5.95, 5.7, 5.7, 5.72, 5.72, 5.72, 5.72, 5.1, 4.47, 3.22, 2.41, 2.23, 3.79, 1.49, 1.88, 2.41, 3.07, 1.94, 0.67, 0.0, -0.79, -0.72, 0.0, 0.76, 0.87, 2.2, 1.99, 1.6, 1.0, 0.85, 1.49, 2.2, 1.36, 0.0, 0.74, 1.98, 0.71, -0.63, -1.79, -1.34, 0.45, 2.12, 3.6, 5.46, 6.39, 7.02, 7.06, 7.37, 6.13, 3.84, 3.84, 4.22, 4.8, 5.64, 6.66, 7.11, 7.6, 8.49, 7.15, 4.92, 2.4, 0.7, 0.73, 1.41, 2.15, 2.15, 1.27, 0.0, 0.0, -0.6, -0.95, -0.6, -0.6, -0.6, 0.0, -0.54, -0.65, 0.0, 0.0, 0.0, 0.0, 0.0, 0.0, 1.32, 2.23, 3.06, 3.8, 3.09, 3.47, 4.14, 3.64, 1.2, 0.0, 1.16, 2.51, 2.21, 6.33, 5.69, 5.95, 5.7, 5.7, 5.98, 5.72, 5.72, 5.46, 5.09, 4.08, 2.77, 1.8, 1.9, 4.65, 2.21, 1.88, 2.79, 2.79, 2.3, 2.41, 1.33, 0.73, 0.0, 0.0, 0.0, 1.1, 1.03, 0.0, 0.0, 0.0, 0.0, 1.03, 2.12, 1.36, 0.0, 0.0, 0.0, 0.0, 0.0, -1.79, -2.24, -0.89, 0.45, 1.6, 2.98, 5.15, 6.7, 7.69, 7.64, 4.84, 4.46, 5.43, 5.75, 6.07, 6.21, 6.71, 6.71, 8.05, 7.6, 6.26, 3.58, 1.58, 1.41, 1.41, 1.4, 2.15, 3.32, 3.13, 1.86, 0.0, -0.65, -0.61, -0.61, -0.61, -0.53, -0.57, -0.6, 0.0, 0.61, 1.13, 0.0, 0.0, 0.0, 0.65, 1.32, 2.69, 2.23, 2.31, 2.18, 2.75, 3.33, 1.27, 0.0, 0.54, 2.23, 2.79, 2.53, 6.33, 5.69, 5.95, 5.7, 5.7, 5.7, 5.7, 5.7, 5.72, 5.09, 4.05, 2.92, 1.98, 1.6, 2.53, 1.6, 2.07, 2.3, 2.15, 1.49, 1.9, 2.23, 4.22, 2.41, 0.73, 1.05, 0.96, 0.0, -0.76, 0.0, 1.05, 1.07, 1.0, 0.0, 0.0, 0.0, 0.0, -0.98, -0.76, -0.85, -1.6, -1.79, -0.89, 0.0, 0.89, 1.79, 2.0, 4.4, 7.03, 7.67, 8.34, 6.44, 6.44, 6.4, 6.07, 5.77, 5.81, 6.26, 6.71, 5.81, 4.02, 1.79, 1.49, 1.66, 2.3, 2.3, 2.21, 3.95, 3.58, 3.2, 0.65, 0.0, -0.59, -0.59, -1.13, -1.84, -1.88, -1.2, 0.0, 0.61, 1.61, 1.11, 0.7, 0.64, 1.32, 2.0, 2.82, 2.26, 1.98, 1.41, 1.35, 0.59, -0.53, -0.65, 1.16, 2.79, 3.48, 2.51, 5.92, 5.69, 5.95, 5.7, 5.7, 5.7, 5.7, 5.7, 5.06, 5.08, 4.44, 3.8, 3.56, 2.3, 1.75, 1.73, 2.4, 2.4, 2.26, 1.98, 1.98, 3.22, 3.91, 4.43, 2.76, 1.83, 0.0, -0.65, -0.76, 0.0, 3.0, 1.98, 0.76, 0.0, 0.0, 0.0, 0.0, -0.61, -0.85, 0.0, -0.45, -0.89, 0.45, 0.45, 1.34, 1.79, 2.24, 3.13, 5.09, 6.94, 7.28, 7.69, 7.06, 6.07, 4.84, 3.83, 3.32, 3.95, 4.02, 2.68, 1.79, 1.6, 3.49, 2.4, 2.29, 1.49, 2.15, 3.45, 2.68, 2.5, 0.53, 0.0, -0.61, -0.61, -1.16, -1.84, -2.07, -2.07, -0.59, 0.0, 1.13, 2.23, 2.07, 1.8, 1.41, 1.76, 2.11, 2.0, 1.84, 1.16, 0.0, -0.57, -1.58, -0.61, 1.27, 3.43, 3.64, 2.0, 5.69, 5.69, 5.69, 5.7, 5.7, 5.7, 5.7, 5.7, 5.29, 5.06, 4.66, 4.66, 4.44, 3.52, 2.44, 2.23, 2.47, 2.25, 2.25, 2.23, 2.41, 2.6, 3.25, 4.2, 4.2, 2.16, 0.98, 0.0, 0.0, 0.96, 3.22, 1.88, 0.6, 0.0, 0.57, 0.76, 0.76, 0.0, 0.45, 1.6, 1.26, -0.0, -0.0, 2.68, 3.58, 1.79, 2.24, 3.13, 3.95, 4.66, 5.46, 6.01, 5.59, 4.16, 2.4, 2.15, 2.21, 2.23, 1.6, 0.63, 0.57, 1.66, 2.47, 1.63, 0.77, 0.8, 2.26, 2.11, 1.49, 0.63, 0.0, 0.0, 0.0, -0.54, -1.2, -1.4, -2.07, -2.0, -1.41, 0.0, 0.0, 1.6, 2.53, 3.14, 2.79, 2.79, 2.53, 2.79, 2.5, 2.4, 1.49, 0.42, 0.0, 0.0, 0.63, 3.55, 3.55, 2.11, 5.69, 5.69, 5.69, 5.69, 5.69, 5.69, 5.69, 5.69, 5.04, 5.06, 4.42, 4.66, 4.66, 4.69, 3.83, 3.2, 2.75, 2.69, 2.77, 2.75, 2.93, 2.97, 2.83, 3.45, 3.4, 3.2, 2.16, 1.16, 1.49, 2.21, 2.6, 2.6, 1.34, 1.34, 2.23, 2.86, 2.4, 1.26, 0.71, 1.49, 1.49, 1.24, 1.26, 3.2, 3.13, 1.34, 1.34, 1.79, 2.0, 2.4, 2.84, 3.07, 2.98, 2.2, 0.7, 0.65, 1.49, 1.58, -0.0, -0.0, -0.0, 1.65, 1.58, -0.0, -0.75, -0.0, 0.77, 1.55, 0.81, -0.0, 0.45, 0.45, 0.45, -0.63, -0.8, -0.71, -0.65, -1.33, -1.3, -0.69, 0.0, 0.0, 1.13, 3.07, 3.07, 3.82, 3.82, 3.82, 3.39, 3.39, 2.91, 2.21, 1.4, 0.61, 1.41, 3.11, 2.66, 1.94, 5.69, 5.69, 5.69, 5.69, 6.33, 6.33, 5.69, 5.69, 5.04, 5.29, 4.63, 4.66, 4.66, 5.08, 5.1, 5.08, 3.84, 3.22, 2.73, 3.15, 3.35, 3.37, 3.4, 3.2, 3.09, 3.35, 3.44, 3.13, 2.68, 2.17, 2.17, 2.68, 2.24, 2.24, 3.04, 3.13, 2.6, 2.41, 1.49, 1.49, 2.21, 2.21, 1.9, 1.7, 0.89, 0.63, 0.95, 1.2, 1.79, 2.12, 3.2, 2.54, 1.79, 0.45, -0.0, -0.0, 0.63, 0.45, -0.0, -0.76, -0.74, -0.0, 0.74, -0.75, -1.5, -0.8, -0.0, 0.72, 1.55, 1.41, 0.71, -0.0, -0.63, -0.45, 0.0, 0.0, 0.0, 0.0, 0.0, -0.7, -1.45, -0.67, 0.0, 0.73, 2.86, 3.45, 4.4, 4.52, 3.82, 3.82, 4.4, 3.45, 2.53, 1.84, 2.73, 3.72, 2.48, 1.27, 5.92, 5.92, 5.92, 6.33, 6.33, 6.33, 5.92, 5.69, 5.04, 5.04, 4.63, 4.66, 4.66, 5.08, 5.72, 5.71, 5.06, 4.43, 3.84, 4.1, 4.08, 4.21, 4.45, 4.37, 4.69, 4.9, 5.7, 5.36, 4.92, 3.58, 3.07, 1.79, 4.47, 2.24, 2.24, 2.12, 2.23, 1.9, 1.58, 1.86, 1.86, 2.12, 2.24, 4.47, 3.2, 1.6, 0.8, 1.26, 1.79, 1.79, 1.34, 2.21, 0.71, 0.0, 0.45, 0.45, 0.0, 0.0, 0.0, -0.71, -3.0, -1.14, -0.0, -0.0, -0.76, -0.82, -0.0, -0.0, 2.2, 2.41, 3.35, 1.86, 0.0, 0.0, 0.0, 0.0, 0.0, 0.0, 0.0, 0.0, 0.0, -0.74, 0.0, 0.0, 1.27, 2.79, 4.46, 4.0, 4.0, 4.24, 4.93, 3.6, 3.49, 3.16, 3.43, 3.79, 2.51, 1.84, 5.67, 5.67, 5.67, 6.31, 6.31, 6.31, 5.67, 5.69, 5.26, 5.04, 4.63, 4.66, 4.66, 5.08, 5.46, 5.72, 6.28, 5.65, 5.01, 5.01, 5.06, 5.06, 5.06, 5.59, 6.03, 6.28, 6.3, 6.23, 5.81, 4.92, 4.02, 3.09, 4.02, 4.02, 3.58, 3.2, 3.72, 1.49, 3.72, 1.7, 1.79, 4.47, 4.47, 4.02, 3.58, 3.2, 3.13, 2.68, 2.68, 0.89, 1.6, 2.23, 1.9, 1.2, 0.45, 0.89, 0.6, 0.0, 0.0, -0.8, -2.4, -2.16, -0.96, -0.0, -0.0, -0.0, -0.0, -0.0, 1.9, 1.9, 2.21, 3.07, 1.86, 0.54, 0.0, 0.0, 0.0, 0.0, 0.0, 0.57, 0.71, 0.0, 0.0, 0.0, 0.0, 1.52, 2.98, 3.49, 4.09, 4.4, 4.4, 4.52, 4.09, 4.09, 4.09, 2.53, 2.53, 2.53, 5.67, 5.89, 6.31, 6.31, 6.31, 6.31, 5.67, 5.69, 5.26, 5.04, 4.63, 4.66, 4.66, 5.08, 5.08, 5.72, 6.34, 6.28, 6.23, 5.88, 5.65, 5.65, 5.88, 6.51, 6.7, 6.56, 6.79, 6.61, 6.71, 6.26, 5.36, 4.47, 3.58, 4.47, 3.58, 1.26, 1.49, 2.15, 4.09, 4.47, 2.24, 2.24, 4.47, 4.02, 4.02, 3.58, 2.8, 1.6, 1.4, 3.13, 3.58, 2.12, 2.68, 2.54, 2.12, 1.79, 2.54, 3.93, 2.54, 1.9, -0.0, -0.0, -0.0, 1.41, 0.95, 1.34, 2.0, 1.79, 1.34, 0.63, 3.47, 5.31, 4.19, 1.33, 0.0, 0.0, 0.0, 0.0, 0.0, 0.0, 0.63, 1.2, 0.71, 0.65, 0.0, 0.0, 1.45, 1.94, 2.73, 3.48, 4.09, 4.73, 4.09, 3.6, 5.34, 3.6, 3.07, 3.07, 5.89, 5.89, 6.31, 6.56, 6.56, 6.31, 5.89, 5.67, 5.26, 5.04, 4.63, 4.44, 4.44, 5.08, 5.34, 5.72, 6.34, 6.92, 6.87, 6.52, 6.79, 6.44, 6.44, 6.7, 6.95, 7.31, 7.74, 7.97, 7.6, 7.6, 6.71, 5.81, 4.92, 4.92, 1.79, 1.26, 1.26, 2.12, 2.68, 5.36, 4.77, 1.7, 4.02, 2.24, 4.02, 2.8, 1.6, 1.13, 1.6, 2.84, 4.24, 4.24, 4.4, 4.8, 4.8, 5.26, 6.71, 7.6, 7.52, 5.69, 3.4, 2.32, 2.73, 4.09, 4.77, 1.79, 3.13, 2.24, 1.58, 2.8, 2.97, 5.09, 2.73, 0.0, -0.7, -0.7, -0.54, 0.0, 0.0, 0.0, 0.0, 0.89, 1.2, 1.24, 1.24, 0.54, 0.0, 0.73, 2.4, 3.43, 5.36, 4.37, 3.14, 3.72, 4.93, 4.52, 3.6, 3.6, 5.64, 6.29, 6.29, 6.29, 6.29, 6.31, 5.89, 5.23, 5.26, 4.6, 4.63, 4.44, 4.69, 4.69, 5.09, 5.72, 6.34, 6.64, 6.92, 7.09, 7.35, 6.98, 6.7, 6.95, 7.51, 8.17, 8.33, 8.42, 8.42, 7.58, 6.68, 6.23, 5.81, 4.92, 3.58, 1.79, 1.34, 2.12, 2.97, 2.97, 2.54, 2.12, 2.12, 2.12, 3.58, 2.21, 1.27, 1.27, 2.84, 3.72, 4.4, 4.8, 4.8, 4.65, 4.65, 5.81, 6.36, 7.21, 6.7, 6.52, 5.37, 4.74, 3.79, 4.4, 5.2, 3.13, 3.13, 3.2, 2.48, 2.6, 2.95, 2.15, 0.0, -0.66, -2.07, -2.5, -1.58, -0.6, 0.0, 0.45, 0.0, 0.6, 0.99, 1.9, 1.24, 0.0, 0.0, 0.0, 1.6, 2.88, 4.74, 4.46, 3.49, 3.16, 4.46, 4.4, 5.05, 5.05, 6.29, 6.29, 6.29, 6.29, 6.29, 6.29, 5.89, 5.23, 5.26, 4.6, 4.63, 4.66, 4.45, 4.45, 4.45, 5.76, 5.72, 6.34, 6.87, 7.23, 7.76, 8.15, 6.79, 6.08, 6.07, 7.81, 7.51, 8.14, 7.21, 6.51, 5.7, 5.36, 5.36, 4.92, 4.47, 3.53, 3.6, 4.0, 3.83, 2.6, 2.4, 1.86, 2.12, 3.82, 3.39, 2.84, 3.16, 2.84, 2.84, 3.72, 4.09, 4.8, 4.29, 4.65, 4.43, 5.59, 6.13, 5.59, 6.28, 5.93, 5.59, 5.01, 4.8, 3.04, 2.68, 3.9, 2.97, 3.13, 3.47, 4.8, 5.4, 5.77, 5.31, 3.32, 1.86, 0.45, -0.6, -0.54, 0.0, 0.71, 0.53, 0.61, 0.7, 1.16, 1.16, 1.16, 0.66, 0.7, 1.45, 1.98, 2.88, 3.72, 3.48, 3.48, 3.49, 4.09, 4.0, 4.0, 6.29, 6.29, 6.53, 6.53, 6.29, 6.29, 5.89, 5.23, 5.02, 4.6, 4.63, 4.42, 4.45, 4.45, 4.45, 5.1, 5.72, 5.1, 5.59, 6.06, 8.05, 8.43, 7.44, 6.73, 6.39, 6.39, 7.07, 6.95, 6.28, 5.09, 3.98, 4.02, 4.02, 4.02, 3.98, 3.87, 4.11, 4.4, 4.4, 4.6, 4.19, 4.3, 4.34, 4.47, 3.87, 4.09, 3.72, 3.72, 3.72, 3.72, 4.09, 4.09, 3.79, 3.49, 2.15, 3.07, 5.93, 4.46, 4.46, 6.13, 5.81, 4.8, 4.77, 4.92, 1.34, -0.0, -0.0, 0.99, 3.04, 5.75, 8.01, 10.6, 12.86, 13.84, 12.49, 8.36, 3.74, 1.4, 0.66, 0.7, 0.7, 0.59, 0.59, 0.59, 1.33, 1.33, 1.16, 1.16, 1.23, 0.7, 1.41, 3.0, 4.43, 3.07, 2.73, 3.48, 4.46, 4.46, 6.53, 6.53, 6.53, 6.53, 6.29, 6.29, 5.89, 5.67, 5.02, 4.6, 4.63, 4.42, 4.44, 4.69, 5.09, 5.09, 5.36, 5.1, 5.1, 5.49, 6.95, 7.51, 7.51, 6.92, 6.59, 6.28, 6.51, 6.03, 5.31, 3.87, 2.68, 2.68, 3.13, 3.13, 3.53, 3.87, 4.11, 4.27, 4.4, 4.6, 4.34, 4.44, 4.47, 4.92, 4.34, 4.77, 3.72, 3.35, 3.72, 4.24, 3.72, 2.48, 2.2, 2.4, 3.49, 2.15, 3.72, 4.36, 5.93, 5.81, 4.77, 4.47, 4.02, 3.58, -0.0, -0.76, -0.65, -0.0, 2.68, 4.11, 6.08, 9.2, 12.37, 13.84, 14.11, 12.98, 7.31, 3.9, 0.82, 0.0, 0.66, 0.7, 1.0, 1.2, 1.24, 1.49, 1.58, 1.24, 1.61, 1.16, 0.63, 2.2, 3.64, 2.66, 2.44, 2.66, 3.79, 3.79, 6.27, 6.27, 6.53, 6.53, 6.53, 6.29, 5.89, 5.67, 5.02, 5.04, 4.4, 4.63, 4.66, 4.44, 5.09, 5.09, 5.45, 5.72, 5.72, 6.35, 6.34, 6.59, 6.59, 6.87, 6.87, 6.79, 6.95, 6.51, 5.09, 3.98, 3.07, 2.24, 2.24, 2.6, 3.07, 3.2, 3.88, 4.27, 4.27, 4.6, 4.34, 3.98, 4.02, 4.02, 3.98, 3.39, 4.24, 3.82, 3.82, 3.82, 2.84, 1.41, 1.19, 2.2, 2.4, 2.32, 3.22, 4.83, 6.01, 4.65, 1.34, 1.34, 0.89, -0.0, -0.0, -0.0, -0.0, -0.0, -0.0, 0.98, 0.98, 5.24, 8.82, 9.39, 7.68, 8.53, 8.44, 6.44, 3.6, 0.69, 0.0, 0.0, 0.0, 0.57, 1.24, 1.26, 1.26, 1.24, 1.84, 2.53, 1.8, 1.94, 2.66, 2.44, 2.0, 2.0, 2.48, 2.48, 6.27, 6.27, 6.27, 6.53, 6.53, 6.29, 5.89, 5.67, 5.02, 5.04, 4.6, 4.63, 4.42, 4.66, 5.08, 5.34, 5.72, 5.72, 6.06, 6.67, 6.92, 6.87, 6.57, 6.23, 6.44, 7.07, 6.95, 6.8, 5.81, 4.6, 3.87, 3.07, 2.6, 2.63, 2.91, 3.2, 3.72, 3.88, 3.88, 4.11, 3.87, 3.53, 3.58, 3.13, 3.07, 2.91, 3.82, 3.58, 3.58, 3.2, 2.53, 1.41, 1.41, 1.19, 1.19, 1.3, 1.49, 3.11, 4.46, 4.11, 0.63, 0.0, 0.45, -0.0, -0.0, -0.0, -0.0, -0.0, -0.0, -0.0, 0.0, 0.63, 2.24, 1.26, 1.3, 3.6, 5.54, 6.44, 5.18, 1.32, -0.72, -1.27, -0.61, 0.0, 0.61, 0.53, 1.0, 1.13, 2.0, 2.73, 2.79, 2.88, 1.94, 1.76, 1.27, 1.27, 1.76, 1.76, 6.27, 6.27, 6.27, 6.27, 6.53, 6.29, 5.89, 5.67, 5.02, 5.26, 4.6, 4.63, 4.63, 4.66, 5.08, 5.08, 5.72, 5.72, 6.06, 6.95, 7.17, 7.44, 6.98, 6.7, 6.7, 6.7, 6.95, 6.56, 6.1, 5.31, 4.4, 3.7, 3.39, 2.91, 3.32, 3.2, 3.35, 3.35, 3.6, 3.39, 3.53, 3.13, 2.68, 2.68, 2.68, 2.68, 4.02, 3.58, 3.58, 3.2, 2.84, 1.27, 1.27, 1.41, 1.08, 1.08, 0.71, 0.85, 2.0, 4.19, 2.53, 0.0, -0.63, -0.85, -0.0, -0.0, -0.0, -0.0, 0.87, 0.63, 0.6, 1.74, 1.2, -0.0, 1.34, 1.4, 2.32, 4.4, 4.15, 2.12, 0.0, -1.23, -1.35, -0.61, 0.0, 0.0, 0.63, 0.7, 1.47, 1.94, 3.48, 2.51, 2.0, 1.41, 0.66, 1.23, 1.94, 1.94, 6.27, 6.27, 6.27, 6.27, 6.53, 6.29, 5.89, 5.67, 5.02, 5.26, 4.6, 4.63, 4.63, 5.06, 5.08, 5.08, 5.72, 5.72, 6.06, 6.95, 7.51, 7.44, 7.72, 7.61, 7.23, 6.7, 6.51, 6.03, 5.75, 5.47, 5.08, 4.55, 4.27, 3.6, 3.2, 3.2, 3.2, 3.2, 3.32, 2.91, 2.63, 2.68, 2.68, 2.68, 2.68, 3.13, 3.09, 3.13, 3.13, 2.91, 2.5, 2.53, 1.13, -0.0, -0.0, 1.27, 1.13, -0.0, -0.0, 1.49, 4.29, 2.23, -0.0, -0.57, -0.87, -0.0, -0.0, -0.0, -0.0, 0.89, 2.41, 3.79, 3.04, 4.41, 5.34, 4.09, 2.4, 1.24, 2.06, 0.79, 0.0, 0.0, -0.67, -0.67, -0.74, 0.0, 0.0, 0.67, 0.7, 1.11, 1.84, 2.79, 2.21, 1.49, 0.7, 0.63, 1.35, 1.35, 6.27, 6.27, 6.27, 6.27, 6.53, 6.29, 6.29, 5.67, 5.23, 5.26, 5.04, 4.84, 5.06, 5.06, 5.32, 5.08, 5.72, 5.72, 6.06, 6.65, 6.95, 7.51, 7.8, 7.64, 7.35, 7.07, 6.15, 5.86, 5.29, 4.94, 4.94, 5.21, 4.55, 3.88, 3.6, 3.2, 3.32, 2.91, 2.91, 2.6, 2.17, 2.24, 2.6, 2.63, 3.07, 3.07, 3.07, 3.13, 3.13, 3.07, 2.6, 1.58, 1.13, -0.0, -0.0, 1.27, 1.6, -0.0, -0.0, 0.45, 2.6, 5.81, 2.86, -0.0, -0.0, -0.0, -0.0, -0.0, -0.0, 0.89, 1.58, 3.72, 5.59, 6.26, 6.28, 6.39, 3.72, 0.45, -1.13, -0.7, 0.7, 1.27, 0.0, -1.26, -1.41, -0.7, 0.0, 0.0, 0.0, 0.0, 0.0, 2.79, 3.6, 3.07, 2.21, 1.13, 1.23, 1.23, 6.27, 6.27, 6.27, 6.27, 6.53, 6.29, 6.29, 5.64, 5.23, 5.26, 5.04, 5.04, 5.06, 5.06, 5.06, 5.32, 5.46, 5.72, 6.06, 6.35, 6.95, 6.95, 7.51, 7.51, 7.44, 7.15, 6.51, 5.59, 5.29, 5.01, 5.01, 4.43, 4.07, 3.72, 3.2, 3.07, 2.68, 2.4, 2.0, 1.86, 1.86, 2.4, 2.4, 2.63, 3.07, 3.07, 3.07, 3.07, 2.68, 2.68, 1.79, 1.24, 0.65, 0.65, -0.0, 0.57, 1.4, -0.0, -0.6, 0.45, 0.89, 4.15, 4.8, 2.53, 1.08, -0.0, -0.0, 0.8, 0.95, 0.45, 2.23, 3.58, 4.46, 4.85, 4.4, 3.16, 0.71, -1.26, -2.29, -1.47, 0.0, 0.0, -0.59, -2.0, -1.94, -1.3, 0.0, 0.0, 0.0, -0.61, 0.0, 0.66, 3.14, 4.0, 3.14, 2.23, 1.8, 1.8, 6.27, 6.27, 6.27, 6.53, 6.53, 6.29, 6.29, 5.64, 5.89, 5.26, 5.04, 5.04, 5.29, 5.06, 5.06, 5.32, 5.72, 6.0, 6.35, 6.35, 6.67, 6.95, 7.23, 7.51, 7.51, 6.87, 6.23, 5.37, 5.06, 4.45, 4.74, 4.11, 4.0, 3.35, 2.79, 3.07, 2.5, 2.15, 1.9, 1.9, 2.15, 2.4, 2.4, 2.4, 2.6, 2.6, 2.49, 2.63, 2.4, 2.17, 1.34, 0.99, 0.54, 0.54, -0.0, -0.0, -0.0, -0.0, -0.0, -0.0, 0.45, 2.24, 4.38, 3.45, 2.53, 2.73, 0.6, 0.89, 1.26, 1.26, 2.12, 3.6, 4.22, 3.22, 1.7, 0.63, -1.2, -2.5, -1.27, -0.74, 0.0, 0.0, -1.0, -1.9, -1.4, -1.23, -1.41, -1.13, -0.61, -0.61, 0.0, 0.0, 2.79, 3.78, 3.72, 3.14, 2.51, 2.51, 6.27, 6.27, 6.27, 6.53, 6.53, 6.29, 6.29, 6.06, 5.89, 5.67, 5.26, 5.04, 5.04, 5.06, 5.06, 5.32, 5.72, 5.72, 6.35, 6.35, 6.67, 6.67, 6.95, 7.23, 6.64, 6.32, 5.71, 5.38, 5.37, 4.75, 4.43, 4.07, 3.43, 3.35, 2.79, 2.79, 2.21, 1.9, 1.9, 1.9, 1.9, 1.9, 1.86, 1.2, 1.2, 2.6, 2.91, 2.5, 2.5, 1.86, 1.34, 1.24, 0.71, 0.71, -0.0, -0.0, -0.0, -0.0, -0.0, -0.0, 0.45, 1.34, 3.13, 2.54, 1.9, 1.49, 1.74, 1.2, 0.0, 0.0, 1.6, 3.95, 5.75, 4.46, 3.9, 1.7, -0.65, -1.9, -0.54, 0.65, 1.88, 2.15, 1.7, 0.45, -0.63, -1.26, -1.88, -2.07, -0.66, 0.0, 0.0, 0.0, 0.61, 2.73, 3.48, 3.16, 3.16, 3.16, 6.5, 6.5, 6.27, 6.53, 6.53, 6.29, 6.29, 6.29, 5.89, 5.67, 5.02, 5.04, 5.04, 5.29, 5.06, 5.06, 5.72, 5.72, 5.72, 6.35, 6.64, 6.97, 6.97, 6.67, 6.34, 5.72, 5.71, 5.1, 5.08, 5.06, 4.71, 4.07, 3.43, 2.84, 3.14, 2.53, 2.21, 1.88, 1.61, 1.9, 1.9, 1.86, 1.86, 1.86, 1.86, 1.2, 2.12, 2.5, 1.58, 1.34, 1.26, 1.24, 0.71, 0.57, -0.0, -0.0, -0.0, 0.57, 0.4, 0.63, 0.89, 1.79, 2.24, 2.12, 1.6, 1.2, 0.57, 0.57, 0.45, 0.0, 0.85, 2.54, 5.81, 7.6, 7.6, 7.02, 4.11, 1.24, 0.89, 2.17, 3.39, 4.66, 5.09, 4.34, 2.17, 0.45, 0.0, 0.0, 0.0, 0.0, 0.0, 0.0, 0.0, 2.0, 2.73, 3.16, 3.16, 3.16, 6.5, 6.5, 6.27, 6.53, 6.53, 6.29, 6.29, 6.29, 5.89, 5.67, 5.23, 5.26, 5.04, 5.29, 5.29, 5.06, 5.46, 5.72, 5.72, 6.08, 6.35, 6.69, 6.69, 6.35, 5.72, 5.72, 5.38, 5.1, 5.06, 5.35, 4.71, 4.07, 3.16, 2.84, 2.84, 2.23, 1.61, 1.88, 1.88, 1.61, 1.58, 1.58, 1.86, 1.86, 1.58, 1.6, 1.6, 2.4, 1.6, 1.2, 0.99, 0.99, 0.57, 0.57, -0.0, -0.0, 0.8, 0.8, 0.8, 0.63, 0.63, 1.79, 1.7, 1.79, 1.79, 0.89, 0.45, 0.45, 0.45, 0.8, 0.71, 0.45, 1.79, 6.98, 10.28, 10.43, 9.65, 6.44, 2.6, 3.58, 6.36, 7.56, 7.09, 7.4, 6.84, 3.98, 2.24, 1.7, 1.0, 0.0, -0.63, -0.66, 0.0, 0.59, 2.0, 2.48, 3.16, 3.16, 6.5, 6.5, 6.27, 6.53, 6.53, 6.29, 6.29, 6.29, 5.89, 5.67, 5.23, 5.02, 5.26, 5.04, 5.29, 5.29, 5.46, 5.72, 5.98, 6.35, 6.35, 6.35, 6.35, 6.08, 5.72, 5.1, 5.1, 4.47, 4.95, 4.43, 4.71, 3.79, 3.48, 2.86, 2.23, 2.51, 1.84, 1.61, 1.88, 1.61, 1.24, 1.24, 1.24, 1.58, 1.9, 1.9, 2.15, 2.12, 1.34, 0.95, 0.8, 0.8, 0.8, 0.57, 0.57, 0.57, 0.8, 0.8, 0.8, 0.8, 0.63, 1.2, 1.79, 2.24, 1.79, 1.2, 0.63, 0.0, 0.8, 1.58, 1.2, -0.0, 0.0, 2.68, 9.39, 10.62, 8.55, 4.84, 3.51, 4.47, 8.02, 9.62, 9.89, 9.27, 9.91, 9.23, 5.36, 2.63, 1.86, 0.53, 0.0, -0.66, 0.0, 0.59, 1.8, 2.51, 2.51, 2.51, 6.5, 6.5, 6.27, 6.53, 6.53, 6.53, 6.29, 6.29, 5.89, 5.89, 5.23, 5.02, 5.26, 5.26, 5.29, 5.29, 5.7, 5.7, 5.7, 6.08, 6.34, 6.34, 6.35, 5.72, 5.09, 5.1, 4.46, 4.47, 4.45, 4.29, 3.49, 3.49, 2.86, 2.86, 2.48, 2.23, 1.6, 1.84, 1.88, 1.2, 1.24, 1.24, 1.24, 1.9, 1.9, 1.9, 1.86, 1.7, 1.34, 0.6, 0.8, 0.57, 0.8, 0.57, 0.57, 0.57, 0.71, 0.8, 0.8, 1.26, 1.26, 1.2, 3.2, 1.79, 1.34, 0.89, 1.2, 1.34, 1.6, 1.6, 1.79, 1.26, 1.34, 3.58, 8.19, 10.16, 5.77, 1.34, 2.17, 5.32, 8.38, 10.19, 10.98, 11.42, 11.04, 11.12, 8.49, 3.99, 2.4, 1.61, 0.61, 0.0, 0.0, 0.0, 0.61, 1.88, 1.88, 1.88, 6.27, 6.27, 6.27, 6.53, 6.53, 6.53, 6.29, 6.29, 5.64, 5.89, 5.67, 5.23, 5.26, 5.26, 5.04, 5.29, 5.7, 5.7, 5.7, 6.34, 6.34, 6.08, 5.98, 5.08, 5.09, 4.71, 4.46, 4.47, 4.47, 3.49, 2.84, 2.61, 2.86, 2.86, 2.22, 1.8, 1.8, 1.84, 1.16, 1.2, 1.2, 1.2, 1.2, 1.49, 1.9, 1.58, 1.58, 1.6, 0.89, 0.8, 0.57, 0.57, 0.57, 0.57, 0.57, 0.57, 0.71, 1.24, 1.24, 1.26, 1.9, 1.9, 2.8, 2.8, 1.2, 0.89, 0.89, 0.89, 1.34, 1.34, 2.12, 2.0, 4.02, 5.46, 8.63, 10.93, 9.36, 7.21, 7.73, 9.4, 10.63, 11.18, 11.18, 11.62, 11.62, 10.73, 9.39, 5.79, 2.91, 2.15, 1.16, 0.0, 0.0, 0.0, 0.0, 1.4, 1.61, 1.61, 6.27, 6.27, 6.27, 6.27, 6.53, 6.53, 6.29, 6.29, 5.64, 5.89, 5.67, 5.23, 5.02, 5.26, 5.26, 5.69, 5.69, 5.95, 5.95, 6.34, 6.34, 6.08, 5.72, 5.08, 4.69, 4.71, 4.46, 4.47, 4.1, 3.47, 2.84, 2.2, 2.4, 2.2, 2.2, 1.76, 1.8, 1.61, 1.16, 1.2, 1.2, 1.2, 1.2, 1.2, 1.49, 1.49, 1.24, 0.95, -0.0, -0.0, 0.57, 0.57, 0.57, 0.57, 0.57, 0.71, 0.71, 1.24, 1.24, 1.24, 1.24, 1.4, 2.21, 2.8, 2.8, 2.8, 1.34, 1.34, 1.34, 0.89, 1.34, 2.68, 5.36, 7.71, 10.25, 11.06, 11.52, 11.21, 12.04, 12.14, 11.6, 11.15, 10.63, 10.19, 10.63, 9.37, 8.47, 4.87, 3.39, 2.15, 1.2, 0.53, 0.0, 0.0, 0.0, 0.0, 0.61, 0.61, 6.27, 6.27, 6.27, 6.27, 6.53, 6.53, 6.29, 6.29, 5.64, 5.89, 5.67, 5.23, 5.23, 5.23, 5.26, 5.69, 5.69, 5.69, 5.69, 6.34, 6.34, 5.98, 5.08, 5.09, 4.45, 4.71, 4.73, 3.84, 3.85, 3.47, 3.08, 2.4, 2.18, 1.7, 1.73, 1.23, 1.13, 1.16, 1.16, 1.2, 1.2, 1.2, 1.2, 1.49, 1.49, 1.2, 1.2, 0.0, -0.0, -0.0, 0.57, 0.57, 0.57, 0.57, 0.71, 0.71, 0.71, 1.24, 1.24, 0.65, 1.2, 1.24, 2.21, 1.2, 1.2, 3.58, 1.34, 1.34, 1.34, 1.34, 1.34, 2.24, 4.92, 8.01, 10.28, 9.39, 9.81, 10.49, 11.4, 11.6, 11.18, 8.84, 7.48, 6.58, 6.22, 6.71, 5.81, 4.43, 3.39, 2.4, 1.24, 0.54, 0.54, 0.65, 0.0, 0.0, 0.0, 0.0, 6.27, 6.27, 6.27, 6.27, 6.53, 6.53, 6.29, 6.29, 5.86, 5.64, 5.89, 5.23, 5.23, 5.23, 5.67, 5.69, 5.69, 5.69, 5.69, 5.95, 5.7, 5.72, 5.08, 4.69, 4.45, 4.05, 4.08, 3.84, 3.45, 3.22, 2.82, 2.82, 2.36, 1.67, 1.16, 1.23, 1.16, 1.16, 1.0, 0.53, 0.65, 1.2, 1.24, 1.9, 1.9, 1.88, 0.71, 0.45, -0.0, -0.0, -0.0, -0.0, -0.0, 0.71, 0.71, 0.71, 0.71, 0.71, 1.2, 0.65, 0.65, 1.2, 2.21, 1.2, 1.34, 3.58, 1.34, 1.34, 1.34, 1.34, 1.34, 2.24, 3.39, 6.79, 9.7, 8.94, 6.55, 7.71, 10.02, 10.37, 9.62, 7.57, 5.36, 4.02, 4.02, 4.47, 5.36, 4.02, 3.13, 2.68, 2.24, 1.26, 1.0, 0.65, 0.65, 0.61, 0.61, 0.0, 6.27, 6.27, 6.27, 6.27, 6.27, 6.53, 6.29, 6.29, 5.86, 5.64, 5.89, 5.67, 5.23, 5.23, 5.67, 5.67, 5.92, 5.69, 5.69, 5.95, 5.7, 5.32, 5.08, 4.69, 4.03, 4.05, 4.08, 3.84, 3.45, 3.45, 2.8, 2.8, 2.32, 1.8, 1.16, 1.11, 1.16, 1.16, 1.16, 0.53, 0.65, 1.2, 1.24, 1.0, 1.9, 1.61, 0.6, -0.0, -0.0, -0.0, -0.0, -0.0, -0.0, 0.54, 0.54, 0.71, 1.24, 1.24, 0.65, 0.65, 0.65, 1.2, 1.4, 1.2, 1.34, 3.13, 3.13, 1.34, 1.34, 1.34, 1.79, 0.89, 2.24, 4.85, 8.36, 8.46, 5.31, 6.44, 9.14, 10.0, 8.48, 6.67, 6.26, 5.78, 6.11, 6.11, 6.11, 4.87, 3.87, 3.82, 3.53, 2.68, 1.9, 1.2, 1.2, 1.4, 1.84, 0.61, 6.27, 6.27, 6.27, 6.27, 6.27, 6.53, 6.29, 6.29, 5.86, 5.64, 5.64, 5.89, 5.67, 5.67, 5.67, 5.67, 5.92, 5.92, 5.69, 5.69, 5.7, 5.32, 4.66, 4.69, 4.03, 4.05, 3.83, 3.42, 3.42, 2.77, 2.77, 2.77, 2.77, 2.29, 1.7, 1.58, 1.33, 1.16, 0.61, 0.61, 0.53, 0.65, 0.71, 0.99, 0.95, 1.26, 0.45, -0.0, -0.0, -0.0, -0.0, -0.0, -0.0, -0.0, 0.71, 0.71, 1.24, 0.65, 0.65, 0.65, 0.53, 1.16, 1.2, 1.4, 2.8, 2.8, 1.2, 1.34, 1.34, 0.95, 0.95, 0.45, 0.0, 2.8, 4.92, 6.4, 6.07, 4.41, 6.54, 6.8, 5.64, 4.92, 7.12, 7.48, 7.28, 7.76, 8.67, 8.19, 6.85, 6.36, 4.3, 4.02, 3.32, 2.21, 1.88, 2.15, 1.84, 1.84, 6.27, 6.27, 6.27, 6.27, 6.27, 6.27, 6.29, 5.86, 5.86, 5.86, 5.64, 5.89, 5.67, 5.67, 5.67, 5.67, 5.67, 5.92, 5.69, 5.69, 5.29, 5.06, 4.66, 4.69, 4.03, 4.05, 3.83, 3.64, 3.42, 3.42, 2.96, 2.96, 2.96, 2.77, 2.18, 1.76, 1.8, 1.13, 0.59, 0.61, 0.53, 0.54, 0.57, 0.8, 0.6, 0.45, 0.89, -0.0, -0.0, -0.0, -0.0, -0.0, -0.0, -0.0, -0.0, 0.71, 0.71, 1.2, 0.65, 0.65, 0.53, 0.53, 1.13, 1.6, 1.6, 2.53, 1.7, 3.2, 0.6, -0.0, 0.6, 0.45, 0.0, 0.0, 1.2, 2.12, 2.4, 2.68, 3.13, 4.02, 2.68, 3.53, 5.94, 8.67, 9.15, 8.24, 7.92, 8.19, 8.19, 7.76, 7.01, 4.92, 4.43, 3.49, 2.41, 2.15, 2.15, 2.15, 6.27, 6.27, 6.27, 6.27, 6.27, 6.27, 6.53, 5.86, 5.86, 5.86, 5.64, 5.64, 5.67, 5.67, 5.67, 5.67, 5.67, 5.92, 5.92, 5.45, 5.29, 5.06, 4.66, 4.0, 4.03, 3.81, 3.6, 3.4, 3.4, 3.2, 2.75, 2.75, 2.96, 2.77, 2.36, 1.73, 1.76, 1.11, 0.59, 0.59, 0.61, 0.65, 0.0, 0.0, 0.0, 0.45, 0.45, -0.0, -0.0, -0.0, -0.0, -0.0, -0.0, -0.0, -0.0, -0.0, 0.54, 0.65, 0.65, 0.65, 0.53, 0.53, 0.65, 1.6, 1.6, 2.53, 2.53, 2.53, 0.57, -0.0, 0.6, 0.45, 0.95, 0.85, 0.0, 0.0, 1.34, 2.68, 3.82, 5.05, 6.07, 6.8, 8.67, 10.6, 10.37, 9.11, 6.55, 6.58, 7.56, 8.01, 8.05, 7.6, 5.78, 4.09, 1.4, 1.88, 1.88, 1.88, 6.27, 6.27, 6.27, 6.27, 6.27, 6.27, 6.53, 5.86, 5.86, 5.86, 5.64, 5.64, 5.89, 5.67, 5.67, 5.67, 5.67, 5.67, 5.92, 5.04, 5.29, 4.63, 4.66, 4.0, 4.03, 4.03, 3.6, 3.4, 3.4, 3.4, 2.92, 2.75, 2.75, 2.77, 2.36, 1.73, 1.73, 1.23, 1.11, 0.59, 0.61, 0.0, 0.0, 0.0, 0.0, 0.0, 0.0, 0.0, 0.45, -0.0, -0.0, -0.0, -0.0, -0.0, -0.0, -0.0, 0.71, 0.65, 0.65, 0.65, 0.53, 0.53, 0.61, 1.13, 1.6, 2.53, 2.53, 2.84, 0.8, 0.6, 0.63, 0.89, 1.6, 2.53, 1.6, 1.24, 2.12, 4.92, 7.47, 8.67, 9.67, 10.41, 11.73, 11.57, 10.6, 9.15, 7.01, 6.22, 6.71, 8.05, 8.05, 8.01, 7.45, 3.16, 1.2, 1.2, 1.2, 1.2, 6.27, 6.27, 6.27, 6.27, 6.27, 6.27, 5.83, 5.86, 5.86, 5.86, 5.86, 5.64, 5.89, 5.67, 5.67, 5.67, 5.67, 5.67, 5.92, 5.04, 5.29, 4.63, 4.42, 4.0, 4.0, 4.03, 3.37, 3.6, 3.4, 3.4, 3.4, 2.92, 2.75, 2.29, 2.16, 1.7, 1.55, 1.19, 1.23, 0.57, 0.0, 0.0, 0.0, 0.0, 0.0, 0.0, 0.45, 0.0, 0.45, 0.45, -0.0, -0.0, -0.0, -0.0, -0.0, -0.0, -0.0, 0.54, 0.65, 0.65, 0.53, 0.61, 0.61, 0.61, 1.27, 2.53, 2.53, 1.26, 1.26, 0.95, 0.89, 1.34, 2.24, 2.97, 3.47, 3.13, 4.02, 6.21, 8.63, 9.6, 10.28, 12.05, 12.9, 12.4, 10.6, 10.05, 9.74, 7.6, 7.56, 6.55, 9.33, 5.67, 5.34, 2.84, 1.2, 1.2, 1.2, 1.2, 5.83, 5.83, 6.27, 6.27, 6.27, 5.83, 5.83, 5.86, 5.86, 5.86, 5.86, 5.64, 5.64, 5.89, 5.67, 5.67, 5.67, 5.67, 5.92, 5.69, 5.29, 4.63, 4.42, 4.0, 4.0, 4.03, 3.37, 3.6, 3.4, 3.4, 3.4, 2.92, 2.75, 2.29, 2.32, 1.67, 1.7, 1.07, 1.08, 0.57, 0.59, 0.0, 0.0, 0.0, 0.0, 0.0, 0.45, 0.0, 0.45, -0.0, -0.0, -0.0, -0.0, -0.0, -0.0, -0.0, -0.0, -0.0, 0.54, 0.65, 0.53, 0.61, 0.61, 0.61, 1.16, 1.6, 1.6, 1.26, 1.26, 1.2, 0.89, 0.89, 1.79, 3.13, 3.58, 3.95, 4.41, 6.26, 7.56, 7.6, 9.04, 11.9, 13.75, 12.5, 11.3, 10.37, 10.26, 9.83, 8.36, 8.67, 7.74, 4.87, 3.82, 2.21, 0.65, 1.2, 1.2, 1.2, 5.83, 5.83, 6.27, 6.27, 6.27, 5.83, 5.83, 5.86, 5.86, 5.86, 5.86, 5.86, 5.64, 5.89, 5.67, 5.67, 5.67, 5.67, 5.69, 5.69, 5.29, 4.63, 4.42, 4.2, 4.0, 4.03, 3.56, 3.37, 3.6, 3.6, 3.4, 2.92, 2.75, 2.29, 2.14, 1.8, 1.67, 1.16, 1.19, 0.63, 0.59, 0.0, 0.0, 0.0, 0.0, 0.0, 0.45, 0.0, 0.45, -0.0, -0.0, -0.0, 0.6, -0.0, -0.0, -0.0, -0.0, -0.0, -0.0, -0.0, -0.0, 0.61, 0.61, 0.51, 0.59, 1.13, 1.6, 1.6, 1.6, 0.8, 1.26, 1.2, 1.34, 2.68, 2.68, 3.58, 4.47, 5.81, 6.07, 5.05, 6.44, 10.23, 13.35, 12.79, 11.73, 10.37, 8.94, 8.91, 7.89, 4.24, 4.24, 4.24, 3.82, 2.5, 1.2, 1.16, 1.16, 1.16, 5.83, 5.83, 5.83, 6.27, 5.83, 5.83, 5.83, 5.62, 5.86, 5.86, 5.86, 5.86, 5.64, 5.64, 5.67, 5.67, 5.67, 5.92, 5.69, 5.69, 5.29, 4.63, 4.42, 4.2, 4.0, 3.8, 4.03, 3.37, 3.37, 3.6, 3.4, 2.92, 2.75, 2.26, 2.29, 2.14, 1.67, 1.7, 1.07, 0.55, 0.57, 0.51, 0.0, 0.0, 0.0, 0.0, 0.45, 0.0, 0.45, 0.45, -0.0, -0.0, 0.6, 0.57, -0.0, -0.0, -0.0, -0.0, -0.0, -0.0, -0.0, -0.0, 0.61, 0.51, 0.59, -0.0, 1.27, 1.27, 1.6, 1.0, 0.8, 1.26, 2.54, 2.68, 3.13, 3.13, 3.13, 4.47, 4.66, 4.4, 5.05, 8.0, 10.53, 11.09, 10.73, 9.46, 7.6, 6.11, 4.73, 4.73, 3.82, 4.0, 4.24, 3.07, 1.4, 1.16, 1.16, 1.16, 5.83, 5.83, 5.83, 5.83, 5.83, 5.83, 5.83, 5.62, 5.86, 5.86, 5.86, 5.86, 5.64, 5.64, 5.89, 5.67, 5.67, 5.92, 5.69, 5.69, 5.29, 4.63, 4.42, 4.66, 4.0, 4.0, 4.03, 3.81, 3.81, 3.6, 3.6, 3.4, 2.92, 2.75, 2.29, 2.29, 1.8, 1.67, 1.16, 1.19, 0.57, 0.59, 0.53, 0.0, 0.0, 0.0, 0.45, 0.0, 0.45, 0.45, -0.0, -0.0, 0.6, 0.57, -0.0, -0.0, -0.0, -0.0, -0.0, -0.0, -0.0, -0.0, -0.0, -0.0, -0.0, -0.0, -0.0, 0.85, 0.85, 1.0, 0.95, 1.2, 1.34, 2.24, 2.68, 2.68, 1.79, 3.13, 3.95, 4.22, 3.83, 5.43, 7.06, 7.97, 8.93, 8.84, 4.43, 2.91, 3.32, 4.73, 5.64, 4.4, 4.0, 2.53, 1.61, 1.13, 1.13, 1.13, 5.83, 5.83, 5.83, 5.83, 5.83, 5.83, 5.83, 5.62, 5.86, 5.86, 5.86, 5.86, 5.86, 5.64, 5.89, 5.67, 5.67, 5.92, 5.69, 5.69, 5.29, 5.06, 4.42, 4.66, 4.0, 4.0, 4.03, 4.03, 3.81, 4.05, 3.6, 3.4, 2.92, 2.75, 2.26, 2.29, 2.14, 1.8, 1.7, 1.07, 1.23, 0.59, 0.61, 0.54, 0.0, 0.0, 0.45, 0.45, 0.45, 0.45, -0.0, -0.0, 0.6, -0.0, -0.0, -0.0, -0.0, -0.0, -0.0, -0.0, -0.0, -0.0, -0.0, -0.0, -0.0, -0.0, -0.0, -0.0, 0.85, 0.85, 1.0, 1.26, 1.34, 2.24, 2.24, 2.24, 3.13, 2.68, 3.47, 4.15, 4.57, 3.2, 3.84, 6.0, 8.82, 7.6, 4.43, 2.5, 2.53, 3.6, 5.86, 6.13, 4.73, 2.84, 1.33, 1.27, 1.27, 1.27, 5.83, 5.83, 5.83, 5.83, 5.83, 5.83, 5.83, 5.62, 5.62, 5.86, 5.86, 5.86, 5.86, 5.64, 5.89, 5.67, 5.67, 5.92, 5.69, 5.69, 5.7, 5.29, 4.42, 4.66, 4.44, 4.0, 4.03, 4.03, 4.03, 4.05, 4.05, 3.6, 3.4, 2.92, 2.75, 2.96, 2.29, 2.32, 1.67, 1.7, 1.08, 1.11, 0.61, 0.54, 0.57, 0.95, 0.89, 0.45, 0.45, 0.89, 0.63, 0.63, 0.6, 0.57, -0.0, -0.0, -0.0, -0.0, -0.0, 0.57, -0.0, -0.0, -0.0, -0.0, -0.0, -0.0, -0.0, -0.0, -0.0, 0.71, 0.71, 1.49, 1.26, 0.63, 0.89, 2.24, 2.68, 3.13, 3.58, 3.58, 3.9, 3.9, 2.54, 4.47, 10.26, 8.84, 5.64, 3.07, 2.07, 2.48, 4.41, 6.25, 4.46, 2.3, 1.27, 1.27, 1.27, 1.27, 5.83, 5.83, 5.83, 5.83, 5.83, 5.83, 5.83, 5.83, 5.62, 5.86, 5.86, 5.86, 5.86, 5.64, 5.89, 5.67, 5.67, 5.92, 5.69, 5.95, 5.7, 5.29, 5.08, 4.66, 4.66, 4.44, 4.69, 4.03, 4.03, 4.05, 4.05, 4.05, 3.4, 3.4, 2.75, 2.96, 2.77, 2.29, 2.32, 1.7, 1.73, 1.58, 1.13, 1.2, 0.71, 0.6, 0.63, 0.89, 0.89, 0.89, 0.95, 0.95, 0.6, 0.8, -0.0, -0.0, -0.0, -0.0, -0.0, 0.57, 0.57, -0.0, -0.0, -0.0, -0.0, -0.0, -0.0, -0.0, -0.0, -0.0, -0.0, 0.6, 1.26, 1.6, 0.63, 2.0, 2.54, 2.54, 2.68, 2.68, 2.68, 3.13, 3.58, 9.81, 11.6, 10.63, 7.94, 4.52, 2.51, 2.11, 3.55, 4.71, 3.43, 2.0, 1.13, 1.16, 1.16, 1.16, 5.83, 5.83, 5.83, 6.27, 5.83, 5.83, 5.83, 5.83, 5.62, 5.86, 5.86, 5.86, 5.86, 5.64, 5.89, 5.67, 5.67, 5.69, 5.69, 5.95, 5.7, 5.46, 5.08, 4.66, 4.66, 4.69, 4.69, 4.45, 4.71, 4.46, 4.05, 4.05, 3.83, 3.4, 3.4, 3.42, 2.96, 2.77, 2.8, 2.36, 2.4, 1.76, 1.6, 1.88, 1.24, 1.26, 1.2, 1.34, 1.34, 1.34, 1.2, 1.2, 0.8, 1.26, 0.8, -0.0, -0.0, -0.0, -0.0, -0.0, 0.57, 0.57, 0.71, -0.0, -0.0, -0.0, -0.0, -0.6, -0.0, -0.0, -0.0, 0.89, 1.34, 1.6, 0.6, 1.0, 1.58, 1.34, 1.34, 1.26, 1.58, 2.24, 4.92, 9.83, 11.6, 10.73, 8.82, 5.44, 2.79, 1.88, 2.72, 3.47, 2.0, 1.16, 0.6, 0.45, 0.45, 0.45, 5.83, 5.83, 5.83, 6.27, 5.83, 5.83, 5.83, 5.83, 5.62, 5.86, 5.86, 5.86, 5.86, 5.64, 5.89, 5.67, 5.92, 5.69, 5.69, 5.7, 5.7, 5.72, 5.32, 5.08, 5.08, 4.69, 4.69, 4.45, 4.71, 4.71, 4.46, 4.46, 4.05, 3.83, 4.08, 3.42, 3.42, 3.21, 3.45, 3.04, 2.84, 2.44, 2.23, 2.23, 1.9, 1.86, 1.7, 1.79, 1.34, 1.34, 1.6, 1.6, 1.26, 1.26, 1.58, 1.24, -0.0, -0.0, -0.0, -0.0, 0.8, 0.57, 0.57, -0.0, -0.0, -0.0, -0.0, -0.0, 0.45, 0.0, 0.45, 0.89, 1.34, 1.34, 1.2, 0.89, 1.26, 0.89, 0.0, 0.0, 0.0, 0.0, 2.12, 4.66, 6.07, 6.26, 6.21, 3.49, 1.41, 1.26, 1.32, 1.27, 0.0, -0.89, -0.57, -0.0, -0.0, -0.0, 6.04, 6.04, 6.27, 6.27, 6.27, 5.83, 5.83, 5.83, 5.62, 5.86, 5.86, 5.86, 5.86, 5.64, 5.89, 5.67, 5.92, 5.69, 5.95, 5.7, 5.7, 5.72, 5.72, 5.08, 5.34, 5.09, 5.09, 5.09, 4.71, 4.71, 4.46, 4.73, 4.73, 4.47, 4.08, 4.08, 3.84, 3.84, 3.45, 3.47, 3.22, 3.49, 2.86, 2.84, 2.5, 2.4, 2.17, 2.24, 1.79, 1.79, 1.79, 1.7, 1.6, 1.26, 1.86, 1.24, 0.57, -0.0, -0.0, -0.0, 0.8, 0.8, 0.8, 0.57, -0.0, -0.0, -0.0, -0.0, -0.0, 0.0, 0.0, 0.89, 0.89, 1.34, 1.34, 1.34, 1.79, 1.79, 0.0, 0.0, 0.0, 0.0, -0.0, 0.63, 1.34, 2.68, 2.91, 1.16, 0.0, 0.0, 0.0, -1.24, -1.7, -1.24, -0.61, -0.0, -0.0, -0.0, 6.5, 6.5, 6.27, 6.27, 6.27, 6.27, 5.83, 5.83, 5.62, 5.86, 5.86, 5.86, 5.86, 5.89, 5.89, 5.67, 5.92, 5.69, 5.95, 5.7, 5.98, 5.72, 5.72, 5.72, 5.34, 5.09, 5.09, 5.36, 5.1, 5.1, 5.38, 5.1, 5.1, 4.73, 4.47, 4.47, 4.47, 4.47, 4.1, 4.12, 3.84, 3.83, 3.79, 3.43, 3.35, 3.32, 3.07, 2.63, 2.24, 2.24, 2.24, 1.7, 1.7, 1.7, 1.86, 1.86, 1.58, -0.0, -0.0, -0.0, 0.6, 1.26, 0.8, 0.8, 0.57, -0.0, 0.6, 0.6, 0.95, 0.45, 0.0, 0.89, 0.89, 0.89, 0.89, 1.79, 1.79, 2.4, 1.58, 0.0, 0.45, 0.0, 0.0, 0.45, 0.63, 2.12, 1.86, 0.0, -0.59, -1.13, -2.15, -2.17, -0.71, -0.0, -0.0, -0.0, -0.0, -0.0, 6.5, 6.5, 6.5, 6.27, 6.27, 6.27, 6.27, 5.83, 5.86, 5.86, 5.86, 5.86, 5.86, 5.89, 5.89, 5.67, 5.92, 5.69, 5.95, 5.7, 5.98, 5.72, 5.72, 5.72, 5.72, 5.45, 5.36, 5.36, 5.1, 5.1, 5.38, 5.1, 5.1, 5.38, 5.38, 5.08, 5.08, 5.08, 4.47, 4.75, 4.74, 4.71, 4.65, 4.0, 3.88, 3.6, 3.39, 3.09, 3.13, 2.68, 2.68, 2.24, 2.12, 1.7, 2.12, 2.12, 1.86, 0.6, -0.0, -0.0, 0.95, 1.2, 1.26, 0.8, 0.8, 0.8, 0.6, 0.6, 0.95, 0.45, 0.45, 0.89, 0.89, 0.89, 0.89, 1.79, 2.0, 1.6, 2.4, 0.89, 0.89, 0.45, 0.63, 0.95, 2.0, 3.51, 3.07, 1.26, -0.54, -1.24, -1.34, -0.0, 0.54, 0.61, 0.7, 1.41, 1.41, 1.41, 6.5, 6.5, 6.5, 6.27, 6.27, 6.27, 6.27, 6.27, 5.86, 5.86, 5.86, 5.86, 5.64, 5.89, 5.89, 5.92, 5.92, 5.69, 5.95, 5.7, 5.98, 6.08, 6.0, 6.0, 5.72, 5.72, 5.72, 5.72, 5.44, 5.71, 5.71, 5.71, 5.69, 5.69, 5.69, 5.69, 5.37, 5.65, 5.37, 5.06, 5.35, 5.29, 5.21, 5.08, 4.4, 4.19, 3.87, 3.98, 3.58, 3.13, 3.13, 2.68, 2.24, 2.24, 2.12, 2.12, 2.12, 1.6, -0.0, -0.0, 0.95, 0.95, 1.26, 0.8, 0.6, 0.6, 0.6, 0.6, 1.2, 1.2, 1.34, 0.89, 0.89, 1.34, 1.2, 1.2, 1.2, 1.6, 3.13, 2.24, 1.79, 1.34, 0.63, 1.86, 2.91, 4.87, 6.21, 4.02, 2.24, 1.79, 2.24, 2.4, 1.88, 1.55, 2.35, 2.51, 2.51, 2.51, 6.5, 6.5, 6.5, 6.27, 6.27, 6.27, 6.27, 6.53, 5.86, 5.86, 5.86, 5.64, 5.89, 6.31, 6.31, 6.33, 6.33, 6.34, 6.34, 6.08, 6.35, 6.08, 6.35, 6.35, 6.01, 5.72, 5.72, 5.72, 5.71, 5.71, 5.71, 5.71, 6.01, 5.69, 5.69, 5.98, 5.98, 5.98, 5.65, 5.93, 5.59, 5.86, 5.75, 5.47, 5.31, 5.02, 4.77, 4.34, 3.98, 3.58, 3.58, 3.13, 2.68, 2.24, 2.24, 2.24, 2.24, 1.7, 0.95, -0.0, 0.63, 0.95, 1.6, 0.8, 0.6, 0.6, 0.6, 0.95, 1.2, 1.2, 1.34, 0.89, 0.89, 2.68, 1.2, 1.2, 1.2, 1.34, 3.13, 2.54, 2.24, 1.26, 0.95, 1.86, 2.91, 5.77, 7.15, 6.66, 6.22, 6.22, 6.22, 5.44, 4.11, 3.26, 3.4, 4.22, 4.22, 4.22, 6.04, 6.04, 6.04, 5.83, 6.27, 6.27, 6.27, 6.53, 6.29, 5.86, 5.86, 5.89, 6.31, 6.31, 6.07, 6.33, 6.33, 6.34, 6.34, 6.35, 6.35, 6.08, 6.35, 6.35, 6.34, 6.04, 5.72, 6.01, 6.01, 5.71, 5.71, 6.28, 6.28, 6.28, 6.23, 6.23, 6.23, 6.51, 6.51, 6.15, 6.41, 6.28, 5.89, 6.0, 5.81, 5.51, 5.09, 4.77, 4.44, 4.43, 4.02, 3.58, 3.13, 2.68, 2.24, 2.24, 2.24, 2.24, 1.6, 0.95, 0.95, 0.95, 1.2, 1.26, 0.6, 0.6, 0.95, 0.95, 1.2, 1.2, 1.34, 1.79, 1.79, 2.68, 1.34, 1.34, 1.34, 2.68, 2.68, 2.0, 2.0, 1.9, 1.9, 1.86, 3.32, 5.36, 7.15, 7.45, 7.89, 7.89, 8.19, 6.54, 5.06, 4.67, 4.94, 4.56, 4.56, 4.56, 6.04, 6.04, 6.04, 5.83, 6.27, 6.27, 6.27, 6.53, 6.29, 5.86, 5.86, 5.89, 6.31, 6.31, 6.07, 6.33, 6.33, 6.34, 6.34, 6.35, 6.35, 6.08, 6.35, 6.35, 6.34, 6.04, 5.72, 6.01, 6.01, 5.71, 5.71, 6.28, 6.28, 6.28, 6.23, 6.23, 6.23, 6.51, 6.51, 6.15, 6.41, 6.28, 5.89, 6.0, 5.81, 5.51, 5.09, 4.77, 4.44, 4.43, 4.02, 3.58, 3.13, 2.68, 2.24, 2.24, 2.24, 2.24, 1.6, 0.95, 0.95, 0.95, 1.2, 1.26, 0.6, 0.6, 0.95, 0.95, 1.2, 1.2, 1.34, 1.79, 1.79, 2.68, 1.34, 1.34, 2.24, 2.68, 2.68, 2.0, 2.0, 1.9, 2.6, 2.23, 4.24, 6.26, 8.05, 8.8, 9.11, 9.33, 9.33, 7.67, 6.7, 5.69, 5.37, 4.74, 4.74, 4.74]}, {"header": {"dx": 0.06612293990616946, "dy": 0.0552356325346848, "nx": 98, "ny": 59, "la1": 35.046912555036876, "la2": 31.78801023549047, "lo1": -121.43107172385933, "lo2": -114.95102361305473, "refTime": "2026041804", "parameterCategory": 1, "parameterNumber": 3}, "data": [-9.94, -9.59, -9.37, -9.3, -8.73, -8.08, -7.51, -6.87, -5.95, -5.37, -4.43, -3.49, -1.4, -0.71, -0.6, -0.8, -0.95, -0.95, -0.95, 0.0, 0.0, 0.0, 0.65, 0.79, 0.0, 0.0, 0.0, 0.0, 0.72, 1.52, 2.35, 2.35, 2.2, 1.52, 0.0, -0.73, -1.49, -1.33, -1.4, -1.9, -2.5, -3.07, -3.2, -3.22, -3.79, -4.29, -5.49, -5.38, -5.38, -3.2, 0.0, 1.9, 2.79, 2.88, 3.0, 3.0, 3.79, 3.79, 3.79, 3.2, 2.04, 0.7, 0.0, 0.6, 0.89, 0.89, 0.89, 0.6, 0.6, 0.89, 0.6, -0.0, -0.0, -0.0, -0.0, -0.0, -0.0, -0.0, 0.0, 0.0, 0.0, 0.0, -0.45, -1.2, -1.79, -2.12, -2.17, -2.4, -2.5, -2.84, -3.72, -4.74, -5.43, -5.46, -4.0, -2.63, -1.79, -1.7, -9.59, -9.59, -9.3, -8.94, -8.38, -8.08, -7.51, -6.87, -5.95, -5.65, -4.74, -3.79, -1.4, -0.54, -1.27, -1.6, -0.95, -1.2, -1.2, -1.2, -0.95, 0.0, 0.0, 0.0, 0.79, 0.0, 0.0, 0.0, 0.73, 0.73, 1.47, 2.29, 2.29, 1.35, 0.0, -1.27, -2.07, -1.33, -1.4, -1.2, -2.5, -3.2, -4.0, -5.69, -6.7, -7.35, -6.88, -5.86, -3.33, 0.0, 2.84, 3.79, 3.11, 2.72, 3.26, 3.79, 3.79, 3.79, 3.2, 3.09, 2.26, 0.7, 0.0, 0.95, 0.89, 0.45, 0.0, 0.0, 0.0, 0.32, 0.6, -0.0, -0.0, -0.0, -0.0, -0.0, -0.0, -0.0, 0.0, 0.0, 0.0, 0.0, -0.45, -1.2, -1.79, -2.12, -2.17, -2.4, -2.5, -2.84, -3.72, -4.74, -5.43, -5.46, -4.0, -2.63, -1.79, -1.7, -9.59, -9.3, -9.3, -8.73, -8.65, -8.08, -7.44, -6.87, -6.28, -5.65, -5.01, -4.11, -1.88, -1.2, -0.71, -0.57, -0.57, -1.26, -1.86, -2.12, -1.7, -1.6, -1.58, 0.0, 0.0, 0.81, 0.79, 0.7, 0.0, 0.0, 0.0, 0.66, 0.7, 0.0, 0.0, -1.4, -1.84, -2.07, -1.33, -1.88, -2.53, -4.66, -6.44, -7.07, -7.32, -7.06, -4.65, -1.49, 0.65, 3.07, 3.47, 3.0, 3.0, 3.0, 3.55, 3.9, 3.9, 3.2, 2.26, 2.26, 2.26, 1.47, 0.65, 0.95, 0.45, 0.0, 0.0, -0.63, 0.0, 0.63, 1.26, 0.57, -0.0, -0.0, -0.61, -0.65, -0.99, -0.0, -0.45, -0.89, -0.89, -0.89, -1.2, -1.6, -1.7, -2.12, -1.86, -2.23, -2.5, -3.79, -5.06, -5.37, -5.72, -5.09, -3.82, -3.13, -1.79, -1.34, -9.86, -9.3, -9.21, -8.65, -8.29, -8.08, -7.8, -6.87, -6.28, -5.65, -5.35, -5.29, -3.84, -1.61, -1.2, -0.65, -0.65, -1.24, -1.86, -2.17, -2.24, -2.24, -1.7, -1.26, 0.0, 0.85, 1.41, 1.66, 0.76, 0.0, -0.76, -0.76, -0.65, -1.24, -1.9, -2.21, -2.53, -2.41, -2.98, -3.48, -4.46, -4.46, -3.16, -2.3, -2.3, -0.79, 0.0, 2.3, 2.88, 3.0, 2.72, 3.2, 3.33, 3.11, 3.22, 3.47, 3.33, 2.35, 2.26, 1.55, 1.55, 1.41, 0.65, 0.6, 0.45, 0.0, -0.45, -0.89, 0.0, 1.2, 1.49, 1.26, 0.57, -0.0, -0.61, -1.61, -1.9, -1.7, -1.34, -1.7, -2.12, -1.79, -2.12, -1.86, -2.12, -2.12, -1.86, -2.21, -2.84, -5.06, -5.69, -5.43, -5.09, -4.4, -3.97, -3.13, -2.24, -0.89, -9.5, -9.21, -8.65, -8.65, -8.55, -8.37, -8.0, -7.44, -6.52, -6.23, -5.59, -5.29, -3.84, -1.9, -1.9, -1.9, -1.88, -1.2, -2.23, -2.6, -2.68, -2.24, -1.79, -0.89, 0.0, 0.0, 0.71, 0.87, 0.0, 0.0, -2.21, -2.86, -3.74, -4.41, -5.26, -5.26, -4.98, -4.89, -5.43, -3.79, -1.49, 0.0, 1.49, 2.3, 2.2, 2.98, 3.11, 3.33, 3.2, 3.2, 3.11, 3.11, 2.98, 3.07, 3.35, 2.88, 2.35, 2.26, 2.18, 1.58, 0.79, 0.76, 0.61, 1.49, 1.79, 1.34, 0.0, 0.0, 0.0, 0.89, 1.2, 1.2, 1.26, 0.57, -0.0, -1.88, -2.5, -2.6, -2.24, -2.24, -2.63, -2.68, -2.63, -2.6, -2.24, -2.68, -2.91, -3.14, -5.09, -6.06, -5.06, -4.11, -3.79, -3.45, -3.13, -2.68, -2.6, -1.26, -9.3, -9.21, -8.65, -8.55, -8.55, -8.0, -8.0, -7.44, -6.87, -6.23, -5.59, -4.94, -3.22, -2.23, -1.9, -2.21, -2.5, -2.21, -2.5, -3.51, -4.92, -4.47, -2.68, -1.79, -0.89, -0.6, -1.0, -1.49, -0.99, -0.99, -2.21, -3.2, -3.74, -5.75, -7.12, -7.15, -6.21, -6.4, -4.84, -0.63, 0.89, 1.79, 2.21, 2.79, 2.88, 4.16, 4.56, 4.83, 4.03, 3.0, 2.29, 2.2, 2.3, 2.68, 2.53, 2.47, 2.26, 1.55, 1.58, 1.6, 0.76, 0.7, 1.2, 3.07, 3.58, 3.07, 1.86, 0.63, 0.0, 0.0, -0.0, -0.0, 0.63, 0.4, -0.0, -1.26, -2.4, -2.91, -2.68, -2.24, -3.07, -3.53, -3.58, -3.53, -3.58, -4.02, -5.64, -6.64, -7.07, -6.44, -4.46, -4.46, -4.43, -2.68, -2.24, -2.63, -3.07, -1.9, -9.58, -9.21, -8.93, -8.55, -8.55, -8.0, -8.0, -8.0, -7.44, -6.79, -6.15, -5.37, -3.22, -1.49, -3.79, -2.23, -2.5, -3.22, -3.84, -4.52, -5.32, -6.71, -7.11, -5.77, -3.58, -3.04, -3.47, -4.4, -4.98, -3.2, -2.0, -2.54, -3.74, -4.4, -6.11, -6.26, -6.66, -5.94, -2.12, 0.63, -0.0, -0.0, 0.0, 0.71, 1.8, 3.9, 5.59, 6.24, 5.49, 4.21, 3.68, 3.07, 3.07, 2.53, 2.4, 1.41, 0.74, 0.79, 0.0, 0.0, 0.0, 0.0, 1.2, 3.51, 4.41, 4.24, 2.86, 1.61, 0.42, -0.89, -1.34, -1.2, -0.95, -1.2, -1.2, -1.2, -1.79, -2.17, -2.6, -2.68, -3.13, -4.02, -4.47, -4.47, -4.92, -6.58, -8.19, -8.4, -7.6, -6.94, -6.25, -6.9, -5.09, -2.4, -1.79, -2.91, -3.14, -2.21, -9.21, -9.1, -8.93, -8.55, -8.55, -8.37, -8.0, -8.0, -7.64, -7.35, -6.41, -6.1, -3.6, -1.9, -3.49, -2.21, -2.5, -3.49, -3.49, -3.83, -3.22, -3.32, -4.41, -6.26, -7.15, -6.26, -6.61, -6.17, -4.47, -2.68, -2.68, -4.47, -6.17, -6.36, -6.11, -5.81, -5.81, -4.47, -2.24, -0.89, -0.0, -0.0, -0.0, 0.0, 0.8, 1.98, 4.29, 5.21, 5.38, 5.46, 3.22, 2.98, 3.11, 2.47, 1.52, 0.78, 0.0, 0.0, 0.0, 0.0, 0.0, 0.0, 1.58, 4.24, 4.24, 2.8, 2.86, 1.33, 0.0, -1.24, -2.24, -2.6, -3.07, -3.07, -3.07, -2.63, -1.7, -1.2, -2.24, -3.07, -3.39, -4.47, -5.36, -6.26, -7.12, -7.94, -8.06, -8.19, -7.71, -7.28, -7.56, -7.33, -3.82, -2.24, -2.17, -2.79, -3.49, -2.53, -9.21, -9.1, -8.93, -8.55, -8.55, -8.55, -8.55, -8.55, -8.0, -7.35, -6.95, -7.01, -5.94, -5.59, -4.22, -3.2, -3.45, -3.83, -2.86, -2.23, -1.9, -1.49, -2.53, -3.22, -4.41, -5.26, -4.82, -3.13, -3.04, -3.13, -5.26, -7.52, -7.98, -6.71, -5.36, -3.58, -3.58, -3.9, -3.04, -2.54, -0.8, -0.0, -0.0, 0.0, 0.0, 0.0, 1.0, 2.2, 3.91, 4.6, 5.21, 4.83, 4.03, 3.2, 1.52, 0.72, 0.0, 0.0, 0.0, 0.0, 0.0, 0.0, 2.23, 4.15, 3.83, 3.83, 2.21, 0.79, 0.0, -1.6, -2.6, -3.13, -3.53, -3.53, -3.39, -3.07, -2.5, -2.4, -2.68, -3.07, -2.68, -3.87, -4.87, -5.78, -6.58, -7.33, -7.06, -6.79, -5.94, -5.64, -4.73, -3.53, -2.63, -2.6, -2.91, -3.49, -3.48, -3.14, -9.48, -9.1, -8.93, -8.55, -8.55, -8.55, -8.55, -8.55, -8.43, -7.9, -7.76, -7.6, -7.71, -8.64, -7.85, -6.94, -7.21, -7.21, -6.79, -5.94, -5.94, -5.37, -4.89, -4.43, -4.6, -4.57, -3.13, -2.6, -3.04, -4.92, -6.0, -5.94, -3.04, -2.24, -2.68, -2.68, -2.68, -3.07, -2.54, -1.79, -0.0, -0.0, 0.0, 0.0, 0.0, 0.0, 0.0, 0.0, 1.7, 3.09, 4.37, 5.38, 5.49, 3.79, 3.22, 2.3, 1.33, 0.79, 0.0, 0.0, 0.0, 0.8, 4.65, 4.8, 5.34, 3.74, 2.86, 2.07, 0.0, -1.88, -2.63, -3.13, -3.07, -3.07, -2.91, -3.07, -3.45, -3.45, -3.53, -3.58, -3.39, -2.79, -3.45, -3.6, -4.24, -4.11, -4.93, -4.0, -3.07, -2.91, -2.24, -1.7, -1.58, -3.07, -3.82, -4.12, -5.09, -4.0, -9.1, -9.1, -9.1, -8.55, -8.55, -8.55, -8.55, -8.55, -8.82, -8.43, -8.15, -8.15, -7.76, -8.22, -8.14, -8.19, -9.06, -9.57, -9.57, -10.04, -10.45, -10.41, -9.75, -8.4, -8.4, -5.4, -3.9, -3.13, -3.13, -4.82, -4.29, -2.5, -1.2, -0.45, -1.7, -3.04, -3.04, -1.34, 0.0, 0.8, 1.26, 0.89, 0.45, 0.0, 0.0, 0.0, 0.0, 0.0, 0.79, 1.55, 3.9, 6.01, 6.39, 5.82, 4.8, 2.86, 2.21, 1.49, 0.8, 0.63, 1.7, 4.15, 5.75, 6.51, 8.46, 8.01, 6.79, 4.93, 2.23, -0.63, -2.24, -1.79, -1.79, -2.17, -2.4, -2.8, -3.45, -4.0, -4.24, -4.47, -4.02, -3.2, -2.53, -2.51, -2.23, -2.23, -2.53, -2.23, -1.88, -1.2, -0.99, -1.27, -2.24, -3.13, -4.43, -5.69, -5.69, -4.93, -9.1, -9.1, -9.1, -9.1, -9.1, -9.1, -9.1, -9.1, -8.96, -8.43, -8.28, -8.15, -8.15, -7.61, -6.56, -6.4, -6.6, -8.06, -9.43, -9.91, -9.39, -8.91, -8.48, -9.21, -6.8, -6.4, -5.4, -2.91, -2.23, -2.21, -1.74, -0.65, 0.0, 0.0, -1.49, -2.15, -1.2, 1.26, 2.12, 2.23, 2.23, 1.86, 1.26, 1.6, 0.0, 0.0, 0.0, 0.0, 1.0, 1.2, 2.84, 3.84, 4.46, 4.4, 3.51, 2.6, 2.23, 1.58, 1.34, 1.79, 5.36, 7.42, 7.89, 8.49, 9.81, 9.39, 8.46, 6.98, 4.85, 1.79, 0.0, 0.0, 0.0, -0.63, -1.6, -2.12, -2.6, -3.32, -5.2, -6.22, -4.92, -4.02, -3.39, -1.84, -1.84, -1.27, -1.27, -1.27, -1.13, -1.13, -1.16, -2.21, -2.8, -3.07, -4.24, -5.43, -4.66, -4.52, -9.1, -9.1, -9.1, -9.1, -9.21, -9.21, -9.1, -9.1, -8.96, -8.82, -8.68, -8.15, -8.15, -7.9, -6.79, -5.65, -4.94, -5.37, -7.09, -7.89, -7.81, -7.31, -6.8, -3.73, -2.58, -2.23, -0.98, 0.0, 0.0, -0.54, -0.54, 0.0, 0.0, 0.0, -0.76, 0.0, 0.65, 3.22, 2.23, 2.23, 2.21, 2.21, 1.9, 0.57, 0.0, -0.63, -0.95, -0.6, 0.0, 0.71, 1.6, 0.85, 0.0, 0.0, 0.89, 0.89, 0.63, 0.0, 0.45, 3.04, 6.66, 8.49, 8.91, 9.81, 9.72, 8.01, 6.26, 5.77, 4.66, 4.24, 2.12, 1.34, 0.63, -0.0, -0.89, -1.79, -2.24, -2.24, -3.58, -4.87, -6.55, -5.32, -4.92, -4.41, -2.15, -2.07, -2.2, -1.94, -1.27, -1.27, -2.2, -2.07, -2.53, -3.07, -4.09, -4.46, -3.72, -3.82, -9.48, -9.48, -9.48, -9.21, -9.21, -9.21, -9.48, -9.1, -8.96, -8.96, -8.68, -8.15, -8.15, -7.9, -7.44, -6.28, -5.06, -4.43, -4.94, -5.86, -6.41, -5.78, -5.01, -3.83, -2.61, -2.18, -1.14, 0.0, 0.0, 0.0, -0.61, 0.0, 0.0, 0.0, 0.0, 0.71, 1.49, 1.9, 1.58, 1.24, 1.24, 0.71, 0.0, 0.0, -1.6, -3.2, -1.6, -1.26, 0.0, 0.0, 0.0, -2.21, -2.12, -1.34, 0.0, 0.0, -0.89, -1.34, -0.45, 2.12, 6.0, 7.97, 8.94, 8.94, 7.56, 5.75, 4.92, 3.58, 4.4, 3.22, 4.19, 1.24, 0.0, -0.89, -1.79, -1.79, -2.24, -2.24, -2.24, -2.68, -4.02, -6.66, -7.15, -7.6, -3.82, -3.49, -2.98, -2.0, -2.0, -1.41, -2.11, -1.8, -2.79, -3.16, -4.12, -3.79, -3.14, -3.07, -9.63, -9.63, -9.63, -9.76, -9.76, -9.76, -9.63, -9.1, -9.35, -8.96, -8.68, -8.15, -8.15, -7.9, -7.64, -6.87, -5.71, -5.08, -4.45, -4.45, -5.06, -5.06, -5.06, -4.47, -3.84, -3.42, -2.29, -0.57, 0.0, 0.0, 0.0, -0.51, 0.0, 0.0, 0.0, 1.6, 2.48, 2.23, 2.48, 0.57, 0.0, 0.0, 0.0, 0.0, 0.0, -1.6, 0.0, 0.0, 0.0, 0.0, -0.8, -1.49, -1.9, -0.6, 0.0, 0.0, -1.2, -2.24, -1.79, 1.6, 4.8, 5.4, 4.82, 3.58, 2.68, 4.02, 3.13, 2.24, 1.9, 1.9, 2.21, 0.61, -1.24, -2.17, -2.68, -2.24, -2.68, -2.24, -2.24, -1.7, -2.12, -3.13, -5.36, -6.26, -6.71, -6.07, -4.46, -2.79, -2.73, -2.2, -2.2, -1.94, -2.73, -2.73, -2.73, -2.53, -2.53, -2.53, -9.63, -10.02, -9.76, -9.76, -9.76, -9.76, -9.63, -9.1, -9.35, -8.96, -8.68, -8.15, -8.15, -7.9, -7.9, -7.44, -6.92, -5.71, -5.1, -4.81, -5.08, -5.08, -4.81, -4.73, -4.46, -3.83, -2.26, -1.1, 0.0, 0.0, 0.0, 0.0, 0.0, 0.0, 0.0, 1.26, 2.23, 2.86, 2.73, 0.0, 0.0, 0.0, 0.0, 0.0, 0.0, 0.0, 1.4, 3.2, 2.8, 0.0, 0.0, -0.71, 0.0, 0.85, 0.71, 0.0, -0.85, -2.95, -0.85, 1.9, 4.47, 6.26, 4.92, 4.24, 0.95, 0.0, 1.0, 0.0, 0.0, 0.63, 0.87, -0.76, -3.35, -3.32, -3.58, -3.13, -2.68, -1.79, -0.89, -0.89, -0.63, -0.6, -2.12, -2.6, -3.58, -5.36, -6.55, -4.52, -4.09, -3.48, -2.73, -3.38, -2.73, -1.8, -2.29, -1.8, -1.84, -1.84, -10.02, -10.02, -9.76, -10.13, -10.13, -9.76, -10.02, -9.63, -9.35, -8.96, -8.68, -7.76, -7.76, -7.9, -7.72, -7.44, -6.92, -6.34, -5.72, -5.44, -5.1, -4.83, -4.83, -4.46, -4.05, -3.37, -2.21, -1.14, 0.0, 0.0, 0.0, 0.0, 0.0, 0.0, 0.0, 1.26, 1.26, 0.71, 0.0, 0.0, -1.19, -0.57, 0.0, 0.0, 0.0, 1.4, 3.2, 3.39, 3.2, 2.84, 1.41, 1.41, 2.2, 2.4, 2.4, 1.05, 0.0, 0.0, 1.07, 5.69, 6.8, 5.81, 4.09, 2.73, 1.19, 0.0, 0.0, 0.0, -1.58, -1.4, -0.99, -3.64, -4.09, -4.92, -4.87, -3.51, -2.17, -0.89, 0.0, 0.0, 0.0, 0.0, -0.6, -1.86, -1.86, -2.17, -5.36, -4.41, -4.8, -4.12, -4.02, -3.12, -2.51, -2.48, -2.11, -1.94, -1.8, -1.8, -10.16, -10.3, -10.3, -10.3, -10.3, -9.76, -10.02, -9.88, -9.35, -9.2, -8.68, -7.76, -7.61, -7.61, -7.35, -6.87, -6.92, -6.64, -6.34, -5.45, -5.09, -4.83, -4.46, -4.05, -2.89, -2.33, -1.67, -1.12, -1.12, -0.54, -0.56, -0.57, 0.0, 0.0, 0.0, 0.0, 0.0, -0.71, -0.99, -0.99, -0.85, -0.71, -0.71, -0.71, 0.0, 2.21, 3.82, 3.82, 2.84, 2.48, 2.2, 2.4, 2.4, 3.49, 3.49, 2.32, 2.12, 2.4, 4.46, 5.44, 5.37, 4.74, 3.79, 2.2, 1.3, 0.0, 0.0, -1.6, -3.72, -5.2, -3.93, -2.86, -2.68, -3.97, -3.45, -1.88, -1.58, -1.2, -0.89, 0.0, -0.45, -1.2, -1.49, -1.9, -1.86, -2.24, -3.58, -5.36, -5.59, -5.05, -4.74, -2.98, -2.79, -3.16, -2.98, -2.2, -2.88, -2.88, -10.3, -10.3, -10.3, -10.3, -10.3, -10.3, -10.02, -9.88, -9.35, -9.2, -8.68, -8.15, -7.23, -7.23, -7.23, -7.41, -6.87, -6.92, -5.72, -4.45, -4.44, -4.66, -5.1, -4.56, -3.79, -3.35, -2.89, -2.44, -2.4, -1.63, -1.14, 0.0, 0.0, 0.0, 0.0, -0.59, -1.8, -2.86, -2.3, -1.74, -1.2, -1.24, -0.71, -1.27, 1.13, 2.84, 3.16, 2.84, 2.84, 2.48, 2.73, 2.4, 3.22, 3.49, 4.43, 4.47, 3.68, 4.47, 5.03, 4.75, 4.47, 3.76, 2.4, 0.76, 0.0, 0.98, 0.99, 0.0, -0.87, -2.4, -2.16, -0.72, -0.76, -1.33, -1.24, 0.0, -1.2, -2.17, -2.68, -2.12, -2.63, -3.07, -3.51, -2.91, -2.91, -2.91, -3.97, -4.87, -6.55, -5.94, -5.05, -4.46, -3.48, -3.48, -2.79, -2.73, -2.0, -2.0, -10.3, -10.3, -10.68, -10.68, -10.3, -10.3, -10.02, -9.88, -9.48, -9.2, -8.68, -8.28, -7.23, -7.23, -7.23, -6.79, -6.87, -6.79, -6.39, -5.3, -4.83, -5.06, -5.72, -5.89, -5.59, -5.59, -4.71, -4.05, -3.42, -1.7, -0.57, 0.0, 0.0, 0.0, -0.57, -1.11, -1.76, -2.2, -2.2, -1.73, -1.57, -1.23, -1.08, 0.0, 1.11, 2.73, 2.48, 2.48, 2.48, 2.48, 2.73, 2.73, 3.79, 4.65, 2.86, 3.84, 4.75, 3.72, 3.72, 3.68, 2.32, 2.4, 1.19, 0.0, 0.0, 2.24, 3.58, 2.97, 0.76, 0.82, 0.8, 1.63, 1.61, 0.77, -0.78, -1.52, -1.49, -2.8, -3.97, -3.51, -3.51, -3.53, -3.53, -3.53, -3.32, -3.32, -2.91, -2.91, -4.3, -4.87, -5.64, -6.0, -4.43, -3.84, -4.09, -3.48, -2.98, -2.98, -10.68, -10.68, -10.68, -10.68, -10.3, -10.3, -10.02, -9.63, -9.48, -9.2, -8.68, -8.28, -7.76, -7.61, -7.35, -7.35, -7.15, -6.79, -6.79, -7.06, -6.95, -6.35, -6.35, -6.34, -6.04, -5.71, -4.73, -3.84, -2.36, -1.11, 0.0, 0.0, 0.0, 0.0, -0.59, -1.11, -1.76, -2.44, -2.2, -1.73, -1.08, -0.55, 0.0, 0.0, 1.08, 1.19, 2.48, 2.23, 2.48, 1.41, 2.48, 3.72, 4.4, 4.8, 4.65, 2.86, 4.46, 5.09, 4.75, 2.32, 1.19, 0.0, 0.0, 0.0, 0.89, 3.04, 2.6, 3.58, 3.58, 4.11, 4.56, 4.6, 3.87, 0.77, -2.35, -4.87, -6.58, -5.46, -5.75, -5.36, -3.97, -3.51, -2.49, -2.4, -1.86, -2.23, -1.58, -1.86, -2.15, -2.91, -4.43, -5.86, -5.09, -4.66, -4.27, -4.66, -3.79, -3.79, -10.83, -10.83, -10.68, -10.68, -10.68, -10.3, -10.02, -9.63, -9.48, -8.96, -8.8, -8.68, -8.15, -7.76, -7.35, -7.35, -7.09, -6.87, -7.44, -7.51, -6.92, -6.04, -6.04, -5.72, -5.72, -5.1, -4.05, -2.96, -1.7, -0.57, -0.61, 0.0, 0.0, -0.65, -0.61, -1.6, -2.22, -2.44, -2.44, -1.73, -1.08, -0.57, 0.0, 0.0, 0.57, 1.13, 1.41, 1.27, 1.27, 1.27, 2.84, 4.24, 4.77, 4.4, 4.8, 5.81, 4.84, 6.44, 6.01, 3.49, 0.0, 0.0, 0.0, 0.89, 3.13, 4.02, 4.02, 2.24, 3.13, 3.9, 3.9, 4.19, 3.21, 0.0, -6.14, -8.53, -9.84, -8.58, -7.2, -6.22, -5.36, -3.58, -2.24, -1.7, -1.86, -1.26, -1.26, -1.86, -3.07, -2.53, -3.6, -4.52, -4.66, -4.27, -4.0, -4.0, -3.72, -3.72, -10.83, -10.83, -10.83, -10.68, -10.68, -10.3, -10.02, -9.63, -9.48, -8.96, -9.2, -8.68, -8.28, -8.15, -7.9, -7.72, -7.44, -7.44, -7.17, -7.23, -6.34, -5.72, -5.38, -5.1, -4.83, -4.71, -4.05, -3.4, -2.32, -1.73, -1.11, -0.61, -0.65, -0.53, -1.16, -1.6, -2.48, -2.22, -2.22, -1.76, -1.11, -0.59, 0.0, 0.0, 0.61, 1.16, 1.27, 0.0, 0.0, 1.6, 2.53, 4.24, 4.24, 4.77, 4.77, 5.2, 3.74, 5.43, 6.7, 4.11, 0.63, 0.0, 0.0, 2.24, 4.02, 4.02, 4.02, 3.13, 2.24, 1.34, 0.0, -0.63, 0.0, -1.26, -5.2, -7.2, -9.7, -10.73, -8.88, -6.58, -5.77, -3.82, -3.07, -3.13, -3.07, -2.63, -2.49, -3.39, -4.0, -4.09, -3.49, -5.05, -4.52, -4.11, -3.82, -3.82, -4.11, -4.11, -10.83, -10.83, -10.83, -10.83, -10.68, -10.3, -10.02, -9.63, -9.48, -9.35, -9.2, -8.68, -8.68, -8.15, -7.9, -7.9, -7.44, -7.44, -7.17, -6.95, -6.06, -5.72, -4.83, -4.46, -4.46, -4.46, -4.05, -3.83, -2.77, -2.36, -2.2, -1.58, -1.13, -1.16, -1.33, -1.6, -2.23, -2.23, -1.8, -1.13, -0.59, 0.0, 0.0, 0.0, 0.0, 0.0, 0.0, 0.0, 0.0, 1.6, 2.84, 3.82, 3.82, 4.24, 4.34, 4.34, 2.12, 2.54, 4.0, 5.24, 2.53, 0.0, 0.63, 2.54, 3.13, 4.47, 4.02, 5.36, 3.47, 0.63, -1.2, -2.6, -0.6, 0.89, 0.0, -2.8, -5.81, -8.8, -10.38, -7.76, -4.47, -4.3, -4.73, -4.88, -4.47, -4.47, -4.43, -4.87, -5.16, -4.52, -3.48, -3.14, -4.0, -4.24, -3.97, -4.3, -4.52, -4.52, -10.83, -10.83, -10.83, -10.83, -10.68, -10.3, -10.02, -9.63, -9.48, -9.35, -9.2, -8.68, -8.68, -8.43, -7.9, -7.9, -7.44, -7.44, -7.17, -6.95, -6.35, -5.72, -5.34, -4.69, -4.45, -4.46, -4.73, -3.84, -3.45, -3.04, -2.82, -2.84, -2.44, -1.8, -1.6, -1.6, -1.6, -1.6, -1.33, -1.16, -0.53, 0.0, 0.0, 0.0, 0.0, 0.0, -0.51, 0.0, 0.0, 1.16, 1.88, 2.53, 3.39, 4.02, 4.02, 3.82, 3.39, 1.79, 1.34, 2.23, 3.22, 1.49, 0.89, 1.7, 3.47, 4.02, 4.02, 4.47, 3.58, 0.0, -3.22, -3.79, -0.76, 0.73, 2.29, 2.73, 1.2, -1.86, -8.24, -7.11, -4.02, -3.58, -5.32, -6.67, -6.66, -5.81, -5.36, -5.32, -4.87, -3.87, -3.07, -2.23, -2.21, -2.23, -3.51, -4.43, -4.73, -4.73, -10.83, -10.83, -10.83, -10.83, -10.68, -10.3, -10.3, -9.63, -9.88, -9.35, -8.96, -9.07, -8.43, -8.43, -8.27, -7.9, -7.44, -7.44, -7.17, -7.25, -6.95, -6.35, -6.0, -5.46, -5.09, -4.71, -4.47, -4.1, -4.12, -3.84, -3.84, -3.47, -2.84, -2.22, -1.8, -1.6, -1.33, -1.16, -1.16, -0.65, -0.54, 0.0, -0.65, -0.53, -0.61, -0.61, -0.61, 0.0, 0.0, 0.61, 0.65, 1.58, 3.39, 3.58, 4.02, 3.82, 3.2, 3.13, 2.68, 0.0, 0.65, 2.32, 2.15, 2.24, 3.13, 3.13, 3.58, 3.13, 2.68, 0.0, -1.58, -2.48, -1.6, 0.0, 2.35, 5.59, 4.46, 0.0, -3.39, -4.87, -4.87, -3.82, -4.92, -5.67, -5.64, -4.87, -4.47, -4.47, -4.02, -3.58, -3.58, -2.23, -1.8, -1.84, -2.21, -3.39, -4.3, -4.3, -10.83, -10.83, -10.83, -10.83, -10.68, -10.3, -10.3, -10.16, -9.88, -9.35, -8.96, -8.96, -8.43, -8.43, -8.43, -8.27, -7.64, -7.44, -7.17, -7.51, -6.95, -6.95, -6.35, -6.35, -5.72, -5.36, -4.73, -4.47, -4.12, -4.45, -4.45, -4.43, -3.49, -2.48, -1.6, -1.84, -1.61, -1.2, -1.0, -1.24, -1.24, -1.2, -1.2, -0.53, -0.61, -0.61, -0.61, -0.61, 0.0, 0.0, 0.0, 1.86, 2.6, 2.6, 1.79, 1.7, 2.8, 3.13, 1.2, 0.0, 0.0, 1.66, 2.4, 2.53, 4.34, 3.13, 2.24, 1.6, 0.95, 0.0, -1.49, -2.68, -2.98, -0.81, 2.2, 3.16, 2.12, -1.26, -5.34, -5.16, -4.47, -3.58, -3.53, -4.0, -4.52, -5.2, -4.47, -3.58, -3.13, -3.07, -4.02, -3.97, -2.51, -2.0, -2.51, -2.79, -3.6, -3.6, -10.83, -10.83, -10.83, -10.68, -10.68, -10.3, -10.3, -10.16, -10.02, -9.35, -8.96, -8.96, -8.82, -8.43, -8.43, -8.27, -8.0, -7.8, -7.51, -7.51, -7.23, -6.95, -6.67, -6.35, -6.35, -5.72, -5.1, -5.37, -5.06, -5.01, -4.74, -4.11, -2.86, -2.23, -2.23, -1.84, -1.88, -1.61, -1.9, -1.9, -1.61, -1.2, -1.2, -1.2, -0.65, -0.65, -1.0, -0.53, -1.2, -0.54, 0.0, 1.49, 2.17, 2.17, 2.24, 1.79, 3.13, 3.13, 1.34, 0.89, 0.0, 0.0, 0.88, 2.07, 2.53, 4.09, 1.2, 0.0, -1.26, -1.26, -0.71, -1.8, -2.53, -2.41, -0.57, -0.63, -0.6, -1.88, -3.82, -6.66, -5.36, -3.58, -2.49, -1.9, -2.8, -4.3, -5.64, -3.39, -3.07, -3.07, -4.02, -4.47, -3.49, -3.15, -2.48, -2.51, -3.14, -3.14, -10.83, -10.83, -10.83, -10.68, -10.68, -10.3, -10.3, -9.92, -10.02, -9.63, -9.35, -8.96, -8.96, -8.43, -8.43, -8.27, -8.0, -8.0, -7.51, -7.51, -7.23, -7.23, -6.95, -6.67, -6.64, -6.32, -6.28, -5.98, -5.37, -5.35, -4.43, -3.49, -2.86, -2.23, -2.23, -2.23, -2.21, -1.9, -1.9, -1.9, -1.9, -1.9, -1.24, -0.6, -0.6, -0.65, -1.16, -1.88, -1.88, -1.24, 0.0, 1.86, 2.12, 2.12, 2.24, 2.24, 2.68, 2.68, 1.34, 0.89, 0.0, 0.0, 0.0, 0.85, 1.9, 2.23, 2.6, 0.6, -0.89, -2.24, -0.8, -0.79, -0.82, -2.98, -5.46, -5.09, -2.6, -1.9, -2.17, -2.6, -2.5, -1.61, -0.57, 0.0, -0.63, -1.26, -2.5, -3.45, -3.97, -4.02, -4.47, -4.47, -4.88, -4.09, -3.48, -3.16, -3.16, -3.16, -11.22, -11.22, -10.83, -10.68, -10.68, -10.3, -10.3, -10.3, -10.02, -9.63, -9.48, -8.96, -8.96, -8.82, -8.43, -8.43, -8.0, -8.0, -8.0, -7.51, -7.85, -7.55, -7.55, -7.23, -6.92, -6.87, -6.28, -6.23, -5.65, -5.06, -4.12, -3.49, -2.86, -2.84, -2.51, -2.53, -2.21, -2.5, -2.15, -1.9, -1.9, -1.24, -1.24, -1.24, -1.24, -0.6, -0.71, -1.88, -1.58, 0.0, 1.26, 1.86, 2.12, 1.7, 1.79, 1.79, 1.79, 1.7, 0.8, 0.63, 0.0, 0.0, 0.0, 0.71, 0.8, 0.6, 1.7, 1.7, 0.0, -1.79, -2.54, -0.85, 0.0, 0.0, -3.8, -6.24, -4.11, -1.86, 0.0, 0.54, 1.13, 1.55, 1.7, 1.08, 0.54, 0.0, -0.45, -2.24, -3.58, -5.36, -5.81, -5.36, -5.36, -4.0, -4.09, -3.16, -3.16, -3.16, -11.22, -11.22, -10.83, -10.68, -10.68, -10.3, -10.3, -10.3, -10.02, -9.63, -9.88, -9.35, -8.96, -8.82, -8.82, -8.43, -8.18, -8.0, -8.0, -7.73, -8.08, -7.81, -7.81, -7.51, -7.44, -6.87, -6.57, -6.23, -5.06, -4.75, -4.12, -3.49, -3.16, -2.84, -2.84, -2.79, -2.68, -2.5, -2.5, -2.15, -1.58, -1.58, -1.24, -1.24, -1.58, -0.8, -0.8, -1.2, -0.8, 0.6, 1.49, 1.49, 1.7, 1.7, 1.79, 1.79, 1.6, 1.6, 1.6, 0.63, 0.63, 0.0, 0.57, 0.0, 0.0, 0.0, 0.0, 0.0, 0.0, -1.6, -2.12, 0.0, 0.0, 1.55, 0.0, -4.01, -5.63, -4.03, -0.65, 0.0, 2.12, 2.75, 2.73, 3.17, 2.1, 0.57, 0.0, -0.57, -2.0, -3.58, -4.43, -3.97, -3.58, -3.53, -4.0, -3.72, -3.16, -3.16, -11.22, -11.22, -10.83, -10.68, -10.68, -10.3, -10.3, -10.3, -10.02, -9.63, -9.88, -9.48, -9.35, -8.96, -8.82, -8.82, -8.18, -8.0, -8.37, -8.08, -8.08, -8.08, -8.08, -7.73, -7.44, -6.79, -6.23, -6.15, -5.77, -4.43, -4.12, -3.79, -3.48, -3.43, -3.35, -3.14, -3.07, -2.68, -2.5, -2.15, -1.86, -1.86, -1.86, -1.58, -1.9, -1.9, -1.61, -0.71, 0.0, 0.95, 1.6, 1.6, 1.6, 1.7, 1.7, 1.7, 1.6, 1.6, 1.6, 1.6, 0.63, 0.6, 0.0, 0.0, 0.0, -0.6, -0.63, -0.89, -1.6, -1.58, -0.6, 0.45, 0.0, 0.0, 0.0, -1.52, -3.88, -3.22, -0.7, 0.0, 0.67, 2.06, 2.82, 3.27, 2.75, 1.73, 0.0, -0.53, -1.24, -2.63, -3.58, -3.97, -3.58, -3.53, -3.6, -3.14, -3.14, -3.14, -11.22, -11.22, -10.83, -10.68, -10.68, -10.68, -10.3, -10.3, -10.02, -10.02, -9.88, -9.48, -9.35, -9.35, -8.82, -8.82, -8.55, -8.55, -8.55, -8.29, -8.65, -8.65, -8.08, -8.0, -7.35, -6.79, -6.7, -6.15, -5.01, -5.15, -4.07, -4.07, -4.0, -4.0, -3.72, -3.35, -3.2, -3.07, -2.5, -2.4, -1.86, -1.86, -1.86, -1.9, -1.9, -1.9, -1.24, -0.57, 0.0, 1.2, 1.6, 1.7, 1.6, 1.7, 1.7, 1.7, 2.12, 1.6, 1.6, 1.26, 1.26, 0.6, 1.6, 0.0, 0.0, 0.0, -0.6, 0.0, -0.8, -0.8, 0.0, 1.26, 0.0, -2.68, -2.23, -1.56, -0.72, 0.0, 0.54, 0.67, 1.4, 1.36, 2.06, 2.14, 1.74, 1.11, 0.0, -0.5, -1.2, -2.15, -3.07, -3.58, -3.58, -3.58, -3.07, -2.5, -2.5, -2.5, -10.83, -10.83, -10.83, -10.68, -10.68, -10.68, -10.3, -10.3, -10.16, -10.02, -9.63, -9.88, -9.35, -9.35, -8.96, -8.82, -8.55, -8.55, -8.55, -8.65, -8.65, -8.29, -8.37, -7.9, -7.35, -7.07, -6.7, -6.15, -5.59, -4.65, -4.55, -4.17, -4.0, -4.0, -3.88, -3.6, -3.6, -3.07, -2.91, -2.4, -2.4, -2.4, -2.4, -2.23, -1.9, -1.58, -1.58, -0.8, 0.0, 1.6, 1.7, 1.7, 1.7, 1.7, 1.7, 1.7, 2.12, 1.86, 1.86, 1.26, 1.9, 1.9, 1.4, 1.4, 0.6, 0.0, 0.0, 0.0, 0.0, 0.0, 0.71, 1.0, 0.0, -3.9, -4.71, -2.34, 0.78, 2.4, 3.51, 2.89, 1.42, 0.0, 0.0, 0.0, 0.0, 0.0, 0.0, -0.53, -1.16, -1.61, -2.91, -3.13, -3.13, -3.58, -3.58, -2.8, -2.15, -2.15, -10.83, -10.83, -10.83, -10.83, -10.68, -10.68, -10.3, -10.3, -10.16, -10.02, -9.63, -9.88, -9.48, -9.35, -9.35, -9.1, -9.1, -8.93, -8.93, -8.65, -8.65, -8.29, -8.0, -7.9, -7.61, -7.07, -6.7, -6.15, -5.86, -5.21, -4.55, -4.4, -4.8, -4.4, -4.4, -4.11, -3.6, -2.68, -2.91, -2.4, -2.4, -2.4, -2.4, -2.4, -2.23, -2.23, -1.86, -0.95, 0.89, 1.79, 1.7, 1.7, 1.7, 1.7, 1.7, 2.12, 2.12, 1.86, 1.86, 1.86, 1.86, 2.8, 2.21, 1.4, 1.4, 1.4, 0.0, 0.0, 0.0, 0.0, 0.0, 0.0, 0.0, -2.31, -3.16, -1.58, 1.54, 4.48, 4.81, 3.04, 0.68, -0.7, -1.42, -1.36, -1.42, -0.55, -0.56, -0.7, -1.13, -1.61, -2.4, -2.63, -2.68, -3.13, -3.58, -3.58, -3.07, -3.07, -10.83, -10.83, -10.83, -10.83, -10.68, -10.68, -10.3, -10.3, -10.16, -10.02, -9.63, -9.88, -9.88, -9.88, -9.35, -9.1, -9.1, -9.1, -9.1, -8.65, -8.65, -8.37, -7.9, -7.35, -7.23, -7.07, -6.51, -6.03, -5.49, -5.21, -4.93, -4.8, -4.9, -5.09, -4.6, -4.3, -3.39, -2.91, -2.91, -2.4, -2.4, -2.4, -2.4, -2.23, -2.23, -2.4, -2.4, -0.89, 1.34, 1.79, 1.7, 1.7, 1.7, 1.7, 2.12, 2.12, 2.12, 1.86, 1.86, 2.6, 2.4, 1.86, 2.21, 0.6, 0.6, 0.0, 0.0, 0.0, 0.0, 0.0, 0.0, 0.0, 0.0, 0.73, 0.0, 0.0, 0.75, 2.25, 2.28, 0.68, 0.0, -1.36, -1.36, -1.32, -0.69, 0.0, 0.0, -0.63, -1.13, -1.2, -1.86, -2.17, -2.17, -2.6, -3.13, -3.13, -3.58, -3.58, -10.83, -10.83, -10.83, -10.83, -10.68, -10.68, -10.3, -10.3, -10.55, -10.16, -10.02, -9.88, -9.88, -9.88, -9.63, -9.1, -9.1, -9.1, -9.1, -8.93, -8.55, -8.0, -7.9, -7.61, -7.23, -6.95, -6.41, -6.03, -5.75, -5.37, -5.08, -5.08, -5.31, -5.57, -5.24, -4.3, -2.91, -2.91, -2.49, -2.63, -2.6, -2.4, -1.86, -1.9, -1.9, -2.5, -2.12, 0.0, 1.79, 1.79, 1.79, 2.24, 2.24, 2.12, 2.12, 2.12, 2.12, 2.12, 2.4, 2.6, 2.6, 2.4, 2.21, 0.6, 0.0, 0.0, 0.0, 0.0, 0.0, 0.0, 0.0, 0.0, 1.13, 2.26, 1.62, 0.0, -1.45, -2.31, -2.31, -2.76, -2.06, -0.69, 0.0, 0.0, 0.0, 0.0, 0.0, 0.0, 0.0, 0.0, 0.0, -1.26, -2.0, -2.6, -2.6, -3.07, -3.07, -3.13, -10.83, -10.83, -10.83, -10.83, -10.83, -10.68, -10.3, -10.3, -10.55, -10.16, -10.02, -9.63, -9.88, -9.88, -9.63, -9.63, -9.48, -9.1, -9.1, -8.93, -8.55, -8.27, -7.9, -7.61, -7.48, -6.95, -6.41, -6.03, -5.75, -5.75, -5.6, -5.6, -5.81, -5.99, -5.24, -3.87, -2.91, -2.91, -2.91, -2.63, -2.6, -2.4, -1.86, -2.0, -1.9, -2.15, -1.2, 0.89, 1.79, 1.79, 1.79, 2.24, 2.24, 2.17, 2.17, 2.12, 1.86, 1.86, 2.6, 2.6, 2.6, 2.4, 2.8, 0.6, 0.0, 0.0, 0.0, 0.0, 0.0, 0.0, 0.0, 0.0, 0.0, 0.81, 1.52, 0.77, -0.76, -4.03, -5.62, -5.0, -2.83, -0.67, 0.0, 0.64, 1.36, 1.36, 1.36, 0.7, 1.11, 1.27, 0.59, 0.0, -1.9, -2.4, -2.4, -2.8, -3.07, -3.07, -10.83, -10.83, -10.83, -10.83, -10.83, -10.68, -10.3, -10.3, -10.55, -10.16, -10.16, -10.02, -9.63, -9.63, -9.63, -9.63, -9.48, -9.48, -9.1, -9.1, -8.55, -8.27, -8.15, -7.61, -7.48, -6.95, -6.56, -6.28, -6.28, -6.1, -6.1, -6.1, -6.1, -6.3, -5.09, -3.7, -3.32, -2.91, -3.07, -3.07, -2.63, -2.6, -2.12, -1.49, -0.95, -1.26, 0.0, 1.34, 1.34, 1.79, 1.79, 2.24, 2.24, 2.24, 2.12, 2.12, 1.86, 2.6, 2.6, 2.6, 2.63, 2.91, 2.4, 2.8, 1.4, 1.4, 0.6, 0.0, 0.0, 0.95, 0.95, 0.0, -2.24, -1.4, 0.0, 3.2, 1.52, -0.73, -2.9, -3.4, -1.41, 0.0, 0.71, 1.36, 2.18, 2.12, 2.17, 2.23, 2.06, 2.12, 1.23, 0.0, -1.33, -2.21, -2.5, -2.86, -3.07, -3.07, -10.83, -10.83, -10.83, -10.83, -10.83, -10.83, -10.3, -10.55, -10.55, -10.55, -10.16, -10.02, -9.63, -9.63, -9.63, -9.63, -9.63, -9.48, -9.1, -9.1, -8.82, -8.43, -8.15, -7.61, -7.48, -6.95, -6.56, -6.67, -6.28, -6.28, -6.51, -6.51, -6.51, -6.1, -4.9, -4.11, -3.6, -3.39, -3.53, -3.07, -2.63, -2.17, -1.7, -1.6, -1.2, 0.0, 0.0, 0.89, 1.34, 1.34, 1.34, 1.79, 1.79, 1.79, 1.79, 2.12, 2.12, 2.4, 2.6, 2.6, 2.63, 2.63, 3.39, 3.2, 3.2, 2.53, 0.57, 1.6, 1.2, 1.79, 1.2, 0.0, -1.34, -1.79, -0.6, 0.71, 1.2, 0.0, 0.0, 0.0, 0.0, 0.59, 1.98, 2.17, 2.11, 2.06, 1.44, 2.23, 2.23, 2.12, 1.4, 0.0, -0.63, -2.79, -3.22, -2.86, -2.86, -2.86, -10.83, -10.83, -10.83, -10.83, -10.83, -10.83, -10.68, -10.55, -10.55, -10.55, -10.16, -10.16, -9.63, -9.63, -9.63, -9.63, -9.63, -9.48, -9.48, -8.72, -8.82, -8.43, -8.15, -8.0, -7.48, -7.08, -7.2, -6.8, -6.8, -6.4, -6.6, -6.6, -6.51, -6.1, -5.31, -4.6, -4.11, -3.87, -3.53, -3.53, -3.07, -2.6, -1.79, -1.34, -0.89, 0.0, 0.0, 0.45, 0.89, 0.89, 0.89, 1.34, 1.34, 1.34, 1.79, 1.79, 2.17, 2.6, 2.6, 2.6, 2.63, 2.63, 2.6, 3.2, 3.2, 2.53, 2.53, 2.53, 1.7, 1.79, 1.2, 0.0, -0.95, -2.54, -1.79, -1.34, 0.0, 0.0, 1.27, 2.88, 3.79, 3.4, 3.61, 3.53, 2.76, 2.28, 1.45, 1.32, 0.76, 0.73, 0.0, 0.0, -0.64, -2.73, -2.8, -2.5, -2.5, -2.5, -10.83, -10.83, -10.83, -10.83, -10.83, -10.83, -10.68, -10.55, -10.55, -10.55, -10.16, -10.16, -10.02, -9.63, -9.63, -9.63, -9.63, -9.63, -9.48, -8.96, -8.82, -8.68, -8.15, -8.0, -7.48, -7.48, -7.2, -6.8, -6.8, -6.8, -7.01, -6.6, -6.6, -6.1, -5.31, -4.6, -4.6, -4.3, -3.87, -3.53, -3.07, -2.68, -2.24, -1.34, -0.89, -0.45, 0.0, 0.0, 0.0, 0.45, 0.89, 0.89, 1.34, 1.79, 1.79, 1.79, 2.12, 2.6, 2.6, 2.6, 2.63, 2.63, 3.07, 3.39, 3.2, 2.53, 2.53, 2.84, 1.6, 1.2, 0.63, 0.0, -0.8, -2.53, -3.2, -1.86, -0.71, 0.0, 2.99, 5.52, 6.45, 6.94, 5.52, 4.77, 3.53, 2.11, 1.4, 0.69, 0.0, 0.0, 0.0, -0.73, -1.49, -3.16, -2.4, -2.4, -2.4, -2.4, -10.83, -10.83, -10.83, -10.83, -10.83, -10.83, -11.08, -10.55, -10.55, -10.55, -10.55, -10.16, -10.02, -9.63, -9.63, -9.63, -9.63, -9.63, -9.48, -8.96, -8.82, -8.68, -8.28, -8.0, -8.0, -7.48, -7.31, -7.2, -6.8, -6.8, -6.8, -7.01, -6.6, -6.3, -5.4, -5.09, -4.66, -4.77, -4.3, -3.98, -3.13, -2.68, -2.24, -1.79, -1.34, -0.89, 0.0, 0.0, 0.0, 0.0, 0.89, 1.34, 1.34, 1.79, 1.79, 1.79, 2.24, 2.17, 2.6, 2.6, 2.63, 3.07, 3.07, 3.07, 3.82, 2.53, 2.53, 1.26, 1.26, 0.95, 0.0, 0.0, 0.0, -0.99, -0.87, 0.0, 0.0, 0.78, 2.35, 4.8, 7.9, 8.51, 7.16, 5.11, 3.53, 2.15, 1.39, 0.0, -0.76, -1.45, -1.04, -1.26, -2.29, -2.84, -2.4, -2.4, -2.4, -2.4, -11.08, -11.08, -10.83, -10.83, -10.83, -11.08, -11.08, -10.55, -10.55, -10.55, -10.55, -10.16, -10.16, -10.02, -9.63, -9.63, -9.63, -9.63, -9.48, -9.1, -8.82, -8.68, -8.28, -8.0, -8.0, -7.48, -7.31, -7.2, -6.8, -6.8, -6.8, -7.01, -6.6, -6.3, -5.81, -5.57, -5.09, -4.8, -4.34, -3.98, -3.53, -3.13, -2.24, -1.79, -1.34, -0.89, 0.0, 0.0, 0.0, 0.45, 0.89, 1.34, 1.79, 1.79, 1.79, 1.79, 1.79, 2.24, 2.17, 2.6, 2.63, 3.07, 3.07, 3.07, 2.91, 3.2, 3.2, 1.26, 1.26, 0.6, 0.0, 0.0, 0.0, 0.0, 0.0, 0.79, 0.73, 0.0, 0.76, 3.8, 6.57, 7.93, 6.47, 4.86, 4.24, 2.76, 0.73, 0.0, -1.52, -2.17, -2.21, -0.7, -1.27, -2.21, -2.6, -2.4, -2.4, -2.4, -11.08, -11.08, -10.83, -10.83, -10.83, -11.08, -11.08, -10.55, -10.55, -10.55, -10.55, -10.55, -10.16, -10.02, -9.63, -9.63, -9.63, -9.63, -9.1, -9.1, -8.82, -8.68, -8.28, -8.4, -8.0, -7.48, -7.71, -7.31, -7.2, -7.2, -6.8, -7.01, -6.6, -6.3, -5.88, -5.99, -5.57, -5.24, -4.77, -4.43, -3.53, -3.13, -2.68, -1.79, -1.34, -0.89, 0.0, 0.0, 0.0, 0.45, 0.89, 1.34, 1.2, 1.79, 2.24, 2.24, 2.24, 2.24, 2.24, 2.68, 2.68, 3.07, 3.07, 3.09, 3.53, 3.39, 3.2, 3.2, 3.2, 1.6, 1.26, 0.6, 0.0, 0.0, 0.0, 0.0, 0.0, 0.0, 1.52, 2.88, 4.83, 5.51, 6.28, 6.4, 5.52, 2.76, 0.0, -0.69, -1.58, -1.41, -1.41, -1.41, -1.27, -1.88, -2.4, -2.91, -2.91, -2.91, -11.08, -11.08, -11.08, -10.83, -11.08, -11.08, -11.08, -10.68, -10.55, -10.55, -10.55, -10.55, -10.16, -10.16, -9.63, -9.63, -9.63, -9.48, -9.1, -9.1, -8.82, -8.68, -8.28, -8.4, -8.0, -7.6, -7.48, -7.31, -7.31, -7.2, -6.8, -7.01, -6.6, -6.79, -6.3, -5.88, -5.57, -5.09, -4.8, -4.44, -3.98, -3.09, -2.68, -2.24, -1.34, -0.89, 0.0, 0.0, 0.0, 0.0, 0.89, 0.89, 1.2, 1.7, 2.24, 2.24, 2.24, 2.24, 2.24, 2.24, 2.68, 2.68, 3.07, 3.09, 3.53, 4.02, 3.82, 3.82, 3.2, 2.0, 1.6, 1.26, 0.85, 0.0, 0.0, 0.0, 0.0, 0.0, 1.55, 2.2, 2.88, 4.0, 6.77, 8.31, 6.44, 2.7, 0.0, -1.36, -1.35, -1.35, -1.27, -2.0, -1.41, -1.84, -2.8, -2.91, -2.91, -2.91, -11.08, -11.08, -11.08, -11.08, -11.08, -11.08, -11.08, -10.68, -10.55, -10.55, -10.55, -10.55, -10.16, -10.16, -10.02, -9.63, -9.63, -9.48, -9.1, -9.1, -8.82, -8.68, -8.28, -8.15, -8.0, -8.0, -7.48, -7.08, -7.08, -7.2, -7.2, -6.8, -7.01, -6.6, -6.3, -6.3, -5.99, -5.57, -5.24, -4.77, -3.98, -3.53, -2.63, -2.24, -1.34, -0.89, 0.0, 0.0, 0.0, 0.0, 0.89, 0.89, 1.2, 1.7, 2.24, 2.24, 2.24, 2.24, 2.24, 2.24, 2.24, 2.68, 2.68, 3.13, 3.13, 1.79, 2.24, 2.54, 2.54, 2.0, 0.95, 0.6, 0.0, 0.0, 0.0, 0.0, 0.0, 0.0, 0.79, 2.53, 2.3, 3.11, 5.49, 7.18, 4.12, 1.36, -0.63, -1.16, -1.33, -1.35, -1.41, -2.2, -2.0, -2.53, -2.68, -3.39, -3.39, -3.39, -11.08, -11.08, -11.08, -11.08, -11.08, -11.08, -11.08, -10.68, -10.55, -10.55, -10.55, -10.55, -10.55, -10.16, -10.02, -9.63, -9.63, -9.48, -9.1, -9.1, -8.82, -8.43, -8.28, -8.15, -8.0, -8.0, -7.48, -7.48, -7.08, -6.95, -7.2, -6.8, -7.01, -6.6, -6.79, -6.3, -5.88, -5.99, -5.09, -4.8, -4.3, -3.53, -3.07, -2.17, -1.79, -0.89, 0.0, 0.0, 0.0, 0.0, 0.89, 0.89, 1.2, 1.79, 2.24, 2.24, 2.24, 1.79, 2.24, 2.24, 2.24, 2.24, 2.68, 2.68, 3.13, 2.24, 1.79, 2.24, 2.54, 2.54, 2.0, 1.26, 0.0, 0.0, 0.0, 0.0, 0.0, 0.0, 0.87, 1.66, 1.83, 1.6, 3.07, 3.0, 1.47, 0.0, -0.63, -1.88, -2.53, -1.8, -2.2, -2.72, -3.38, -2.84, -3.32, -3.82, -3.82, -3.82, -11.08, -11.08, -11.08, -11.08, -11.08, -11.08, -11.08, -10.68, -10.68, -10.55, -10.55, -10.55, -10.55, -10.16, -10.02, -9.63, -9.63, -9.48, -9.1, -9.1, -8.55, -8.82, -8.28, -8.15, -7.76, -8.0, -7.48, -7.48, -7.48, -6.95, -6.95, -7.2, -6.8, -7.01, -6.6, -6.51, -6.3, -5.81, -5.57, -5.09, -4.34, -3.87, -3.07, -2.17, -1.7, -0.95, 0.0, 0.0, 0.0, 0.0, 0.63, 0.63, 1.2, 1.7, 1.79, 1.79, 1.79, 1.79, 1.79, 1.7, 2.24, 2.24, 2.24, 2.24, 2.68, 2.24, 1.34, 1.79, 2.24, 2.12, 2.12, 2.23, 1.26, 0.63, 0.0, 0.0, 0.0, 0.0, 0.0, 0.0, 0.98, 0.98, 0.85, 0.0, -0.68, -1.36, -1.41, -1.84, -3.45, -3.72, -3.78, -3.47, -3.72, -3.83, -3.82, -3.82, -3.82, -3.82, -11.08, -11.08, -11.08, -11.08, -11.08, -11.08, -11.08, -11.08, -10.68, -10.55, -10.55, -10.55, -10.55, -10.16, -10.02, -9.63, -9.63, -9.48, -9.1, -8.93, -8.55, -8.82, -7.9, -8.15, -8.15, -7.76, -7.61, -7.48, -7.48, -6.95, -6.95, -6.95, -6.8, -6.8, -6.6, -6.51, -6.1, -6.3, -5.81, -5.09, -4.6, -3.7, -3.39, -2.4, -2.12, -1.2, -0.63, 0.0, 0.0, 0.0, 0.95, 0.95, 1.2, 1.6, 1.79, 1.79, 1.79, 1.79, 1.79, 1.7, 1.7, 2.24, 2.24, 2.24, 2.24, 2.24, 1.34, 1.34, 1.34, 1.34, 1.34, 1.2, 1.26, 0.8, 0.63, 1.0, 0.85, 0.85, 0.0, 0.0, 0.0, 0.0, 0.0, -0.75, -0.68, -1.42, -1.32, -1.94, -3.14, -4.93, -5.69, -5.38, -4.12, -4.0, -3.39, -2.91, -2.91, -2.91, -11.08, -11.08, -11.08, -10.83, -11.08, -11.08, -11.08, -11.08, -10.68, -10.55, -10.55, -10.55, -10.55, -10.16, -10.02, -9.63, -9.63, -9.1, -9.1, -8.93, -8.55, -8.18, -7.9, -8.15, -8.15, -7.61, -7.61, -7.23, -7.07, -6.7, -6.95, -6.95, -6.56, -6.8, -6.8, -6.28, -6.51, -6.1, -5.6, -5.31, -4.8, -4.11, -3.2, -2.5, -1.86, -1.26, -0.6, 0.0, 0.0, 0.0, 0.6, 0.6, 1.6, 1.26, 1.6, 1.79, 1.79, 1.79, 1.79, 1.79, 1.7, 1.7, 2.12, 2.24, 1.79, 1.79, 1.79, 1.2, 0.89, 0.45, 0.45, 0.0, 0.0, 0.8, 1.2, 2.0, 1.58, 0.0, 0.0, -1.26, -1.58, 0.0, 0.0, 0.0, 0.68, 0.0, -1.47, -2.04, -3.49, -5.02, -6.13, -6.25, -4.0, -2.91, -1.2, 0.0, 0.0, 0.0, -11.08, -11.08, -11.08, -10.83, -11.08, -11.08, -11.08, -11.08, -10.68, -10.55, -10.55, -10.55, -10.55, -10.16, -10.02, -9.63, -9.48, -9.1, -9.1, -8.55, -8.55, -8.0, -8.27, -7.9, -7.9, -7.61, -7.61, -7.23, -7.07, -7.07, -6.7, -6.7, -6.95, -6.56, -6.41, -6.28, -6.28, -5.89, -5.75, -5.47, -4.55, -4.27, -3.35, -2.79, -1.9, -1.24, -0.57, 0.0, 0.0, 0.0, 0.8, 0.8, 1.26, 1.26, 1.58, 1.86, 1.79, 1.79, 1.79, 1.79, 1.6, 1.7, 1.7, 1.79, 1.79, 1.79, 1.34, 0.89, 0.0, 0.0, 0.0, 0.0, 0.0, 0.0, 0.6, 0.0, 1.26, 0.0, -1.79, -1.79, -1.79, -1.34, 0.71, 1.55, 1.52, 0.0, -0.78, -2.79, -4.24, -5.67, -6.58, -3.82, -1.79, -0.0, 1.7, 2.68, 2.68, 2.68, -11.47, -11.47, -10.83, -10.83, -10.83, -11.08, -11.08, -11.08, -10.68, -10.55, -10.55, -10.55, -10.55, -10.16, -10.02, -9.63, -9.48, -9.1, -8.93, -8.55, -8.55, -8.0, -8.0, -7.9, -7.72, -7.35, -7.35, -7.35, -7.07, -7.07, -6.7, -6.51, -6.51, -6.15, -6.41, -6.41, -6.03, -6.03, -5.75, -5.21, -4.84, -4.07, -3.43, -2.84, -1.88, -1.2, -0.54, 0.0, 0.0, 0.0, 0.0, 0.57, 0.8, 1.26, 1.24, 1.86, 1.7, 1.79, 1.79, 1.34, 1.6, 1.6, 1.6, 1.7, 1.79, 1.79, 1.34, 1.34, 0.89, 0.0, 0.0, 0.0, 0.0, 0.0, 0.0, 0.0, 0.0, 0.0, -1.79, -2.24, -1.79, 0.0, 0.45, 0.63, 0.0, 0.0, -1.16, -2.91, -4.92, -5.81, -4.02, -1.86, 0.57, 1.86, 3.07, 3.13, 3.13, 3.13, -11.22, -11.22, -10.83, -10.83, -10.83, -10.83, -11.08, -11.08, -10.68, -10.55, -10.55, -10.55, -10.55, -10.02, -10.02, -9.63, -9.48, -9.1, -8.93, -8.55, -8.37, -8.0, -8.0, -7.44, -7.72, -7.35, -7.35, -7.15, -6.79, -6.79, -6.57, -6.23, -6.23, -6.51, -6.15, -6.15, -6.15, -5.59, -5.86, -5.29, -4.94, -4.37, -3.79, -2.86, -2.23, -1.33, -0.61, -0.53, 0.0, 0.0, 0.0, 0.57, 0.57, 0.57, 1.24, 1.24, 1.58, 1.79, 1.34, 1.34, 1.2, 1.26, 1.6, 1.6, 1.7, 1.79, 1.2, 1.2, 0.95, 0.0, 0.0, 0.0, 0.0, 0.0, 0.0, 0.0, 0.0, -1.2, -1.58, -1.34, 0.0, 0.0, 0.0, 0.0, -0.63, -0.71, -1.24, -2.68, -3.53, -3.39, -1.61, 0.54, 2.12, 2.68, 3.58, 4.92, 4.92, 4.92, -11.22, -11.22, -11.22, -10.83, -10.83, -10.83, -10.83, -11.08, -10.55, -10.55, -10.55, -10.55, -10.55, -10.02, -10.02, -9.63, -9.48, -9.1, -8.93, -8.55, -8.37, -8.0, -8.0, -7.44, -7.44, -7.09, -7.15, -7.15, -6.79, -6.79, -6.57, -6.23, -6.23, -5.98, -5.98, -5.65, -5.65, -5.65, -5.59, -5.35, -4.74, -4.12, -3.49, -2.86, -2.22, -1.8, -1.13, -0.51, 0.0, 0.0, 0.0, 0.0, 0.71, 0.57, 0.71, 0.71, 1.24, 1.2, 1.34, 0.89, 0.95, 0.6, 1.26, 1.6, 1.6, 1.6, 1.2, 1.2, 0.95, 0.0, 0.0, 0.0, 0.0, 0.0, 0.0, 0.0, -1.0, -0.8, -1.2, 0.0, 0.0, 0.0, -0.63, -0.95, -1.0, -0.7, -0.61, -1.26, -2.17, -1.86, -0.0, 1.34, 2.17, 3.07, 4.87, 5.64, 5.64, 5.64, -11.22, -11.22, -11.22, -10.83, -10.83, -10.83, -10.83, -10.83, -10.55, -10.55, -10.55, -10.55, -10.16, -10.02, -10.02, -9.48, -9.48, -9.1, -8.93, -8.55, -8.37, -7.73, -7.8, -7.8, -7.44, -6.87, -6.87, -6.87, -6.52, -6.28, -6.28, -6.28, -5.69, -5.69, -5.69, -5.69, -5.37, -5.08, -5.37, -5.06, -4.75, -4.12, -3.47, -2.82, -2.2, -1.57, -1.11, -0.57, 0.0, 0.0, 0.0, 0.0, 0.0, 0.0, 0.71, 0.71, 0.71, 0.8, 0.89, 0.89, 0.95, 0.95, 1.26, 1.6, 1.2, 1.2, 1.2, 1.2, 0.6, 0.6, 0.0, 0.0, 0.0, 0.0, -0.6, -0.6, -0.6, -0.8, 0.0, 0.0, 0.0, 0.0, -0.63, -1.24, -1.16, -0.7, -0.78, 0.0, 0.0, 0.0, 0.0, 1.2, 2.5, 4.66, 6.28, 6.7, 6.7, 6.7, -11.22, -11.22, -11.22, -10.83, -10.83, -10.83, -10.83, -10.68, -10.55, -10.55, -10.55, -10.16, -10.02, -9.76, -9.76, -9.21, -9.21, -8.65, -8.65, -8.29, -8.08, -7.73, -7.51, -7.51, -7.21, -6.87, -6.87, -6.87, -6.28, -6.28, -6.28, -6.28, -6.01, -5.69, -5.69, -5.38, -5.38, -5.38, -5.08, -4.75, -4.47, -4.1, -3.45, -3.04, -2.36, -1.88, -1.19, -1.08, -0.57, 0.0, 0.0, 0.0, 0.0, 0.0, 0.0, 0.0, 0.0, 0.57, 0.95, 0.89, 0.63, 0.95, 0.8, 1.6, 1.2, 1.2, 1.2, 0.95, 0.6, 0.6, 0.0, 0.0, 0.0, 0.0, -0.6, -0.6, -0.6, 0.0, 0.0, -0.85, 0.0, -1.26, -0.95, -1.24, -1.16, -0.72, 0.0, 0.74, 0.69, 0.69, 0.69, 2.04, 4.11, 5.86, 6.8, 6.32, 6.32, 6.32, -11.47, -11.47, -11.47, -11.08, -10.83, -10.83, -10.83, -10.68, -10.3, -10.55, -10.55, -10.02, -9.76, -9.76, -9.38, -9.21, -9.21, -8.65, -8.65, -8.08, -8.08, -7.73, -7.51, -7.51, -6.92, -6.59, -6.87, -6.62, -6.62, -6.28, -6.28, -5.71, -5.71, -5.71, -5.1, -5.1, -5.1, -4.73, -4.73, -4.47, -4.08, -3.42, -3.21, -3.0, -2.32, -1.84, -1.7, -1.19, -0.55, -0.63, 0.0, 0.0, 0.0, 0.0, 0.0, 0.0, 0.0, 0.0, 0.8, 0.95, 0.95, 0.95, 0.6, 1.26, 1.2, 1.2, 0.95, 0.95, 0.6, 0.6, 0.0, 0.0, 0.0, 0.0, 0.0, 0.0, 0.0, 0.0, 0.0, -1.0, -1.0, -1.9, -1.9, -1.24, -1.33, 0.0, 0.0, 1.49, 1.58, 1.58, 2.23, 2.9, 5.06, 6.0, 6.35, 6.08, 6.08, 6.08, -11.47, -11.47, -11.47, -11.08, -10.83, -10.83, -10.83, -10.68, -10.3, -10.55, -10.55, -10.02, -9.76, -9.76, -9.38, -9.21, -9.21, -8.65, -8.65, -8.08, -8.08, -7.73, -7.51, -7.51, -6.92, -6.59, -6.87, -6.62, -6.62, -6.28, -6.28, -5.71, -5.71, -5.71, -5.1, -5.1, -5.1, -4.73, -4.73, -4.47, -4.08, -3.42, -3.21, -3.0, -2.32, -1.84, -1.7, -1.19, -0.55, -0.63, 0.0, 0.0, 0.0, 0.0, 0.0, 0.0, 0.0, 0.0, 0.8, 0.95, 0.95, 0.95, 0.6, 1.26, 1.2, 1.2, 0.95, 0.95, 0.6, 0.6, 0.0, 0.0, 0.0, 0.0, 0.0, 0.0, 0.0, 0.0, 0.0, -1.0, -1.0, -1.9, -1.74, -1.49, -1.41, 0.0, 0.0, 1.6, 2.28, 3.11, 3.11, 4.6, 5.21, 5.69, 5.37, 4.74, 4.74, 4.74]}]